Wetterdaten: Freitag, 21.10.2022
Datum Zeit Temp. Aussen Temp. o. S. Temp +5cm Feuchte Auss Luftdruck Regen Sonnenschein Regendauer Solar Windben Empfang
21.10.2022 00:00 13,6 C 12,8 C 10,0 C 97 % 1010,0 hPa 0,0 l/m 0 min 0 min 0 W/m 12,9 km/h (3 Bft) 98,18 %
21.10.2022 00:02 13,6 C 12,8 C 10,0 C 97 % 1009,9 hPa 0,0 l/m 0 min 0 min 0 W/m 6,4 km/h (2 Bft) 95,35 %
21.10.2022 00:04 13,6 C 12,8 C 10,0 C 97 % 1010,0 hPa 0,0 l/m 0 min 0 min 0 W/m 6,4 km/h (2 Bft) 97,87 %
21.10.2022 00:08 13,7 C 12,8 C 10,0 C 97 % 1010,0 hPa 0,0 l/m 0 min 0 min 0 W/m 12,9 km/h (3 Bft) 95,56 %
21.10.2022 00:10 13,7 C 13,3 C 10,6 C 97 % 1009,9 hPa 0,0 l/m 0 min 0 min 0 W/m 16,1 km/h (3 Bft) 97,96 %
21.10.2022 00:12 13,7 C 13,3 C 10,6 C 97 % 1009,9 hPa 0,0 l/m 0 min 0 min 0 W/m 9,7 km/h (2 Bft) 97,92 %
21.10.2022 00:14 13,8 C 13,3 C 10,6 C 97 % 1009,9 hPa 0,0 l/m 0 min 0 min 0 W/m 22,5 km/h (4 Bft) 97,22 %
21.10.2022 00:16 13,8 C 13,3 C 10,6 C 97 % 1009,8 hPa 0,0 l/m 0 min 0 min 0 W/m 16,1 km/h (3 Bft) 98,11 %
21.10.2022 00:18 13,8 C 13,3 C 10,6 C 97 % 1009,9 hPa 0,0 l/m 0 min 0 min 0 W/m 12,9 km/h (3 Bft) 100,00 %
21.10.2022 00:20 13,8 C 13,3 C 10,6 C 97 % 1009,8 hPa 0,0 l/m 0 min 0 min 0 W/m 19,3 km/h (3 Bft) 100,00 %
21.10.2022 00:22 13,9 C 13,3 C 10,6 C 97 % 1009,8 hPa 0,0 l/m 0 min 2 min 0 W/m 22,5 km/h (4 Bft) 100,00 %
21.10.2022 00:24 13,9 C 13,3 C 10,6 C 97 % 1009,8 hPa 0,0 l/m 0 min 0 min 0 W/m 19,3 km/h (3 Bft) 100,00 %
21.10.2022 00:26 13,9 C 13,3 C 10,6 C 97 % 1009,8 hPa 0,0 l/m 0 min 0 min 0 W/m 19,3 km/h (3 Bft) 97,87 %
21.10.2022 00:28 13,9 C 13,3 C 10,6 C 97 % 1009,8 hPa 0,0 l/m 0 min 2 min 0 W/m 6,4 km/h (2 Bft) 100,00 %
21.10.2022 00:30 13,9 C 13,3 C 10,6 C 97 % 1010,0 hPa 0,0 l/m 0 min 2 min 0 W/m 19,3 km/h (3 Bft) 100,00 %
21.10.2022 00:32 14,0 C 13,3 C 10,6 C 97 % 1010,0 hPa 0,0 l/m 0 min 2 min 0 W/m 22,5 km/h (4 Bft) 100,00 %
21.10.2022 00:34 14,0 C 13,3 C 10,6 C 97 % 1010,3 hPa 0,0 l/m 0 min 2 min 0 W/m 22,5 km/h (4 Bft) 100,00 %
21.10.2022 00:36 14,1 C 13,3 C 10,6 C 97 % 1010,4 hPa 0,0 l/m 0 min 0 min 0 W/m 22,5 km/h (4 Bft) 100,00 %
21.10.2022 00:38 14,1 C 13,3 C 10,6 C 97 % 1010,4 hPa 0,0 l/m 0 min 2 min 0 W/m 19,3 km/h (3 Bft) 100,00 %
21.10.2022 00:40 14,1 C 13,3 C 10,6 C 97 % 1010,4 hPa 0,0 l/m 0 min 2 min 0 W/m 22,5 km/h (4 Bft) 100,00 %
21.10.2022 00:42 14,1 C 13,3 C 10,0 C 97 % 1010,4 hPa 0,0 l/m 0 min 2 min 0 W/m 22,5 km/h (4 Bft) 100,00 %
21.10.2022 00:44 14,1 C 13,3 C 10,0 C 97 % 1010,3 hPa 0,0 l/m 0 min 2 min 0 W/m 16,1 km/h (3 Bft) 100,00 %
21.10.2022 00:46 14,1 C 13,3 C 10,0 C 97 % 1010,2 hPa 0,0 l/m 0 min 2 min 0 W/m 12,9 km/h (3 Bft) 100,00 %
21.10.2022 00:48 14,1 C 12,8 C 10,0 C 97 % 1010,1 hPa 0,2 l/m 0 min 2 min 0 W/m 25,7 km/h (4 Bft) 100,00 %
21.10.2022 00:50 14,1 C 12,8 C 10,0 C 97 % 1010,1 hPa 0,0 l/m 0 min 2 min 0 W/m 22,5 km/h (4 Bft) 100,00 %
21.10.2022 00:52 14,1 C 12,8 C 10,0 C 97 % 1010,0 hPa 0,0 l/m 0 min 2 min 0 W/m 19,3 km/h (3 Bft) 100,00 %
21.10.2022 00:54 14,1 C 12,8 C 10,0 C 97 % 1009,9 hPa 0,0 l/m 0 min 2 min 0 W/m 12,9 km/h (3 Bft) 97,96 %
21.10.2022 00:56 14,0 C 12,8 C 10,0 C 97 % 1009,8 hPa 0,0 l/m 0 min 2 min 0 W/m 12,9 km/h (3 Bft) 100,00 %
21.10.2022 00:58 14,1 C 12,8 C 10,0 C 97 % 1009,8 hPa 0,0 l/m 0 min 2 min 0 W/m 16,1 km/h (3 Bft) 100,00 %
21.10.2022 01:00 14,1 C 13,3 C 10,0 C 97 % 1009,7 hPa 0,0 l/m 0 min 2 min 0 W/m 16,1 km/h (3 Bft) 100,00 %
21.10.2022 01:02 14,1 C 13,3 C 10,0 C 97 % 1009,8 hPa 0,0 l/m 0 min 0 min 0 W/m 12,9 km/h (3 Bft) 100,00 %
21.10.2022 01:04 14,1 C 13,3 C 10,0 C 97 % 1009,8 hPa 0,0 l/m 0 min 0 min 0 W/m 12,9 km/h (3 Bft) 100,00 %
21.10.2022 01:06 14,1 C 13,3 C 10,0 C 97 % 1009,8 hPa 0,0 l/m 0 min 2 min 0 W/m 6,4 km/h (2 Bft) 97,87 %
21.10.2022 01:08 14,1 C 13,3 C 10,0 C 97 % 1009,8 hPa 0,0 l/m 0 min 2 min 0 W/m 12,9 km/h (3 Bft) 100,00 %
21.10.2022 01:10 14,1 C 13,3 C 10,0 C 97 % 1009,8 hPa 0,0 l/m 0 min 2 min 0 W/m 16,1 km/h (3 Bft) 100,00 %
21.10.2022 01:12 14,1 C 13,3 C 10,0 C 97 % 1009,7 hPa 0,0 l/m 0 min 0 min 0 W/m 12,9 km/h (3 Bft) 100,00 %
21.10.2022 01:14 14,1 C 13,3 C 10,0 C 97 % 1009,7 hPa 0,0 l/m 0 min 0 min 0 W/m 9,7 km/h (2 Bft) 100,00 %
21.10.2022 01:16 14,1 C 13,3 C 10,0 C 97 % 1009,6 hPa 0,0 l/m 0 min 0 min 0 W/m 19,3 km/h (3 Bft) 100,00 %
21.10.2022 01:18 14,1 C 13,3 C 10,0 C 97 % 1009,6 hPa 0,0 l/m 0 min 0 min 0 W/m 16,1 km/h (3 Bft) 100,00 %
21.10.2022 01:20 14,1 C 13,3 C 10,0 C 97 % 1009,6 hPa 0,0 l/m 0 min 0 min 0 W/m 6,4 km/h (2 Bft) 97,87 %
21.10.2022 01:22 14,1 C 13,3 C 10,0 C 97 % 1009,5 hPa 0,0 l/m 0 min 0 min 0 W/m 16,1 km/h (3 Bft) 100,00 %
21.10.2022 01:24 14,1 C 13,3 C 10,0 C 97 % 1009,5 hPa 0,0 l/m 0 min 0 min 0 W/m 19,3 km/h (3 Bft) 100,00 %
21.10.2022 01:26 14,1 C 13,3 C 10,0 C 97 % 1009,5 hPa 0,0 l/m 0 min 0 min 0 W/m 19,3 km/h (3 Bft) 100,00 %
21.10.2022 01:28 14,1 C 13,3 C 10,0 C 97 % 1009,4 hPa 0,0 l/m 0 min 0 min 0 W/m 16,1 km/h (3 Bft) 95,74 %
21.10.2022 01:30 14,1 C 13,3 C 10,0 C 97 % 1009,4 hPa 0,0 l/m 0 min 0 min 0 W/m 12,9 km/h (3 Bft) 95,24 %
21.10.2022 01:32 14,1 C 13,3 C 10,0 C 97 % 1009,4 hPa 0,0 l/m 0 min 0 min 0 W/m 16,1 km/h (3 Bft) 97,96 %
21.10.2022 01:34 14,1 C 13,3 C 10,0 C 97 % 1009,4 hPa 0,0 l/m 0 min 0 min 0 W/m 12,9 km/h (3 Bft) 97,87 %
21.10.2022 01:36 14,1 C 13,3 C 10,0 C 97 % 1009,3 hPa 0,0 l/m 0 min 0 min 0 W/m 16,1 km/h (3 Bft) 95,92 %
21.10.2022 01:38 14,1 C 13,3 C 10,0 C 97 % 1009,3 hPa 0,0 l/m 0 min 0 min 0 W/m 16,1 km/h (3 Bft) 93,62 %
21.10.2022 01:40 14,1 C 13,3 C 10,0 C 97 % 1009,3 hPa 0,0 l/m 0 min 0 min 0 W/m 19,3 km/h (3 Bft) 93,62 %
21.10.2022 01:42 14,1 C 13,3 C 10,0 C 97 % 1009,2 hPa 0,0 l/m 0 min 0 min 0 W/m 16,1 km/h (3 Bft) 91,49 %
21.10.2022 01:44 14,1 C 13,3 C 10,0 C 97 % 1009,1 hPa 0,0 l/m 0 min 0 min 0 W/m 12,9 km/h (3 Bft) 95,74 %
21.10.2022 01:46 14,1 C 13,3 C 10,0 C 97 % 1009,0 hPa 0,0 l/m 0 min 0 min 0 W/m 16,1 km/h (3 Bft) 91,30 %
21.10.2022 01:48 14,1 C 13,3 C 10,0 C 97 % 1008,9 hPa 0,0 l/m 0 min 0 min 0 W/m 9,7 km/h (2 Bft) 93,62 %
21.10.2022 01:50 14,1 C 13,3 C 10,0 C 97 % 1008,8 hPa 0,0 l/m 0 min 0 min 0 W/m 16,1 km/h (3 Bft) 89,36 %
21.10.2022 01:52 14,1 C 13,3 C 10,0 C 97 % 1008,9 hPa 0,0 l/m 0 min 0 min 0 W/m 22,5 km/h (4 Bft) 93,62 %
21.10.2022 01:54 14,1 C 13,3 C 10,0 C 97 % 1009,1 hPa 0,0 l/m 0 min 0 min 0 W/m 16,1 km/h (3 Bft) 93,62 %
21.10.2022 01:56 14,1 C 13,3 C 10,0 C 97 % 1009,1 hPa 0,0 l/m 0 min 0 min 0 W/m 12,9 km/h (3 Bft) 93,62 %
21.10.2022 01:58 14,1 C 13,3 C 10,0 C 97 % 1009,0 hPa 0,0 l/m 0 min 0 min 0 W/m 16,1 km/h (3 Bft) 91,49 %
21.10.2022 02:00 14,1 C 13,3 C 10,0 C 97 % 1009,0 hPa 0,0 l/m 0 min 0 min 0 W/m 16,1 km/h (3 Bft) 91,49 %
21.10.2022 02:02 14,1 C 13,3 C 10,0 C 97 % 1009,1 hPa 0,0 l/m 0 min 0 min 0 W/m 22,5 km/h (4 Bft) 91,49 %
21.10.2022 02:04 14,1 C 13,3 C 10,6 C 97 % 1009,1 hPa 0,0 l/m 0 min 0 min 0 W/m 12,9 km/h (3 Bft) 93,62 %
21.10.2022 02:06 14,1 C 13,3 C 10,0 C 97 % 1009,1 hPa 0,0 l/m 0 min 0 min 0 W/m 12,9 km/h (3 Bft) 93,48 %
21.10.2022 02:08 14,1 C 13,3 C 10,6 C 98 % 1009,1 hPa 0,0 l/m 0 min 0 min 0 W/m 16,1 km/h (3 Bft) 94,00 %
21.10.2022 02:10 14,1 C 13,3 C 10,0 C 97 % 1009,2 hPa 0,0 l/m 0 min 0 min 0 W/m 12,9 km/h (3 Bft) 88,57 %
21.10.2022 02:12 14,1 C 13,3 C 10,0 C 97 % 1009,2 hPa 0,0 l/m 0 min 0 min 0 W/m 12,9 km/h (3 Bft) 97,83 %
21.10.2022 02:14 14,1 C 13,3 C 10,0 C 98 % 1009,1 hPa 0,0 l/m 0 min 0 min 0 W/m 16,1 km/h (3 Bft) 95,74 %
21.10.2022 02:16 14,1 C 13,3 C 10,0 C 97 % 1009,1 hPa 0,0 l/m 0 min 0 min 0 W/m 12,9 km/h (3 Bft) 95,74 %
21.10.2022 02:18 14,1 C 13,3 C 10,0 C 97 % 1009,1 hPa 0,0 l/m 0 min 0 min 0 W/m 9,7 km/h (2 Bft) 97,87 %
21.10.2022 02:20 14,1 C 13,3 C 10,0 C 97 % 1009,1 hPa 0,0 l/m 0 min 0 min 0 W/m 22,5 km/h (4 Bft) 95,74 %
21.10.2022 02:22 14,1 C 13,3 C 10,0 C 97 % 1009,0 hPa 0,0 l/m 0 min 0 min 0 W/m 12,9 km/h (3 Bft) 97,87 %
21.10.2022 02:24 14,1 C 13,3 C 10,0 C 97 % 1009,0 hPa 0,0 l/m 0 min 0 min 0 W/m 6,4 km/h (2 Bft) 100,00 %
21.10.2022 02:26 14,1 C 13,3 C 10,0 C 97 % 1009,1 hPa 0,0 l/m 0 min 0 min 0 W/m 12,9 km/h (3 Bft) 100,00 %
21.10.2022 02:28 14,0 C 13,3 C 10,0 C 97 % 1009,1 hPa 0,0 l/m 0 min 0 min 0 W/m 6,4 km/h (2 Bft) 100,00 %
21.10.2022 02:30 14,0 C 13,3 C 10,0 C 97 % 1009,1 hPa 0,0 l/m 0 min 0 min 0 W/m 12,9 km/h (3 Bft) 100,00 %
21.10.2022 02:32 14,0 C 13,3 C 10,0 C 97 % 1009,1 hPa 0,0 l/m 0 min 0 min 0 W/m 16,1 km/h (3 Bft) 95,74 %
21.10.2022 02:34 14,0 C 13,3 C 10,0 C 97 % 1009,1 hPa 0,0 l/m 0 min 0 min 0 W/m 12,9 km/h (3 Bft) 97,87 %
21.10.2022 02:36 14,1 C 13,3 C 10,0 C 97 % 1009,0 hPa 0,0 l/m 0 min 0 min 0 W/m 16,1 km/h (3 Bft) 100,00 %
21.10.2022 02:38 14,0 C 13,3 C 10,0 C 97 % 1009,0 hPa 0,0 l/m 0 min 0 min 0 W/m 16,1 km/h (3 Bft) 100,00 %
21.10.2022 02:40 14,0 C 13,3 C 10,0 C 97 % 1009,0 hPa 0,0 l/m 0 min 0 min 0 W/m 6,4 km/h (2 Bft) 100,00 %
21.10.2022 02:42 14,0 C 13,3 C 10,0 C 97 % 1009,1 hPa 0,0 l/m 0 min 0 min 0 W/m 6,4 km/h (2 Bft) 100,00 %
21.10.2022 02:44 14,0 C 13,3 C 10,0 C 98 % 1009,1 hPa 0,0 l/m 0 min 0 min 0 W/m 12,9 km/h (3 Bft) 100,00 %
21.10.2022 02:46 14,0 C 13,3 C 10,0 C 98 % 1009,1 hPa 0,0 l/m 0 min 0 min 0 W/m 19,3 km/h (3 Bft) 100,00 %
21.10.2022 02:48 13,9 C 13,3 C 10,0 C 98 % 1009,1 hPa 0,0 l/m 0 min 0 min 0 W/m 12,9 km/h (3 Bft) 100,00 %
21.10.2022 02:50 13,9 C 13,3 C 10,0 C 98 % 1009,2 hPa 0,0 l/m 0 min 0 min 0 W/m 12,9 km/h (3 Bft) 100,00 %
21.10.2022 02:52 13,9 C 12,8 C 10,0 C 98 % 1009,1 hPa 0,0 l/m 0 min 0 min 0 W/m 6,4 km/h (2 Bft) 100,00 %
21.10.2022 02:54 13,9 C 12,8 C 10,0 C 98 % 1009,1 hPa 0,0 l/m 0 min 0 min 0 W/m 6,4 km/h (2 Bft) 100,00 %
21.10.2022 02:56 13,9 C 12,8 C 10,0 C 98 % 1009,0 hPa 0,0 l/m 0 min 0 min 0 W/m 6,4 km/h (2 Bft) 97,87 %
21.10.2022 02:58 13,9 C 12,8 C 10,0 C 98 % 1009,0 hPa 0,0 l/m 0 min 0 min 0 W/m 12,9 km/h (3 Bft) 100,00 %
21.10.2022 03:00 13,9 C 12,8 C 10,0 C 97 % 1008,9 hPa 0,0 l/m 0 min 0 min 0 W/m 12,9 km/h (3 Bft) 95,74 %
21.10.2022 03:02 13,8 C 12,8 C 10,0 C 98 % 1008,9 hPa 0,0 l/m 0 min 0 min 0 W/m 12,9 km/h (3 Bft) 100,00 %
21.10.2022 03:04 13,8 C 12,8 C 10,0 C 98 % 1008,8 hPa 0,0 l/m 0 min 0 min 0 W/m 6,4 km/h (2 Bft) 100,00 %
21.10.2022 03:06 13,8 C 12,8 C 10,0 C 98 % 1008,9 hPa 0,0 l/m 0 min 0 min 0 W/m 12,9 km/h (3 Bft) 97,83 %
21.10.2022 03:08 13,8 C 12,8 C 10,0 C 97 % 1008,9 hPa 0,0 l/m 0 min 0 min 0 W/m 9,7 km/h (2 Bft) 97,87 %
21.10.2022 03:10 13,8 C 12,8 C 10,0 C 97 % 1008,8 hPa 0,0 l/m 0 min 0 min 0 W/m 6,4 km/h (2 Bft) 100,00 %
21.10.2022 03:12 13,8 C 12,8 C 10,0 C 97 % 1008,8 hPa 0,0 l/m 0 min 0 min 0 W/m 6,4 km/h (2 Bft) 97,87 %
21.10.2022 03:14 13,8 C 12,8 C 10,0 C 97 % 1008,8 hPa 0,0 l/m 0 min 0 min 0 W/m 12,9 km/h (3 Bft) 100,00 %
21.10.2022 03:16 13,8 C 12,8 C 10,0 C 97 % 1008,8 hPa 0,0 l/m 0 min 0 min 0 W/m 3,2 km/h (1 Bft) 97,83 %
21.10.2022 03:18 13,7 C 12,8 C 10,0 C 97 % 1008,8 hPa 0,0 l/m 0 min 0 min 0 W/m 6,4 km/h (2 Bft) 97,87 %
21.10.2022 03:20 13,7 C 12,8 C 10,0 C 97 % 1008,7 hPa 0,0 l/m 0 min 0 min 0 W/m 3,2 km/h (1 Bft) 100,00 %
21.10.2022 03:22 13,7 C 12,8 C 10,0 C 97 % 1008,7 hPa 0,0 l/m 0 min 0 min 0 W/m 6,4 km/h (2 Bft) 100,00 %
21.10.2022 03:24 13,7 C 12,8 C 10,0 C 97 % 1008,7 hPa 0,0 l/m 0 min 0 min 0 W/m 3,2 km/h (1 Bft) 95,74 %
21.10.2022 03:26 13,7 C 12,8 C 10,0 C 97 % 1008,7 hPa 0,0 l/m 0 min 0 min 0 W/m 3,2 km/h (1 Bft) 100,00 %
21.10.2022 03:28 13,7 C 12,8 C 10,0 C 97 % 1008,6 hPa 0,0 l/m 0 min 0 min 0 W/m 3,2 km/h (1 Bft) 100,00 %
21.10.2022 03:30 13,6 C 12,8 C 10,0 C 97 % 1008,6 hPa 0,0 l/m 0 min 0 min 0 W/m 3,2 km/h (1 Bft) 97,87 %
21.10.2022 03:32 13,6 C 12,2 C 10,0 C 97 % 1008,6 hPa 0,0 l/m 0 min 0 min 0 W/m 6,4 km/h (2 Bft) 97,87 %
21.10.2022 03:34 13,6 C 12,2 C 10,0 C 97 % 1008,6 hPa 0,0 l/m 0 min 0 min 0 W/m 3,2 km/h (1 Bft) 95,74 %
21.10.2022 03:36 13,6 C 12,2 C 10,0 C 97 % 1008,4 hPa 0,0 l/m 0 min 0 min 0 W/m 3,2 km/h (1 Bft) 93,62 %
21.10.2022 03:38 13,5 C 12,2 C 10,0 C 97 % 1008,5 hPa 0,0 l/m 0 min 0 min 0 W/m 0,0 km/h (0 Bft) 95,74 %
21.10.2022 03:40 13,5 C 12,2 C 10,0 C 97 % 1008,4 hPa 0,0 l/m 0 min 0 min 0 W/m 6,4 km/h (2 Bft) 97,96 %
21.10.2022 03:42 13,5 C 12,2 C 10,0 C 97 % 1008,4 hPa 0,0 l/m 0 min 0 min 0 W/m 6,4 km/h (2 Bft) 95,65 %
21.10.2022 03:44 13,4 C 12,2 C 10,0 C 98 % 1008,4 hPa 0,0 l/m 0 min 0 min 0 W/m 6,4 km/h (2 Bft) 97,87 %
21.10.2022 03:46 13,5 C 12,2 C 10,0 C 98 % 1008,4 hPa 0,0 l/m 0 min 0 min 0 W/m 6,4 km/h (2 Bft) 97,87 %
21.10.2022 03:48 13,4 C 12,2 C 10,0 C 98 % 1008,4 hPa 0,0 l/m 0 min 0 min 0 W/m 3,2 km/h (1 Bft) 95,74 %
21.10.2022 03:50 13,4 C 12,2 C 10,0 C 98 % 1008,4 hPa 0,0 l/m 0 min 0 min 0 W/m 3,2 km/h (1 Bft) 97,87 %
21.10.2022 03:52 13,4 C 12,2 C 10,0 C 98 % 1008,4 hPa 0,0 l/m 0 min 0 min 0 W/m 3,2 km/h (1 Bft) 97,87 %
21.10.2022 03:54 13,4 C 12,2 C 10,0 C 98 % 1008,3 hPa 0,0 l/m 0 min 0 min 0 W/m 3,2 km/h (1 Bft) 95,65 %
21.10.2022 03:56 13,4 C 12,2 C 9,4 C 97 % 1008,3 hPa 0,0 l/m 0 min 0 min 0 W/m 3,2 km/h (1 Bft) 95,74 %
21.10.2022 03:58 13,4 C 12,2 C 9,4 C 97 % 1008,3 hPa 0,0 l/m 0 min 0 min 0 W/m 3,2 km/h (1 Bft) 97,87 %
21.10.2022 04:00 13,4 C 12,2 C 9,4 C 97 % 1008,3 hPa 0,0 l/m 0 min 0 min 0 W/m 0,0 km/h (0 Bft) 95,74 %
21.10.2022 04:02 13,3 C 12,2 C 9,4 C 97 % 1008,3 hPa 0,0 l/m 0 min 0 min 0 W/m 0,0 km/h (0 Bft) 100,00 %
21.10.2022 04:04 13,3 C 12,2 C 9,4 C 97 % 1008,3 hPa 0,0 l/m 0 min 0 min 0 W/m 3,2 km/h (1 Bft) 93,62 %
21.10.2022 04:06 13,3 C 12,2 C 9,4 C 97 % 1008,2 hPa 0,0 l/m 0 min 0 min 0 W/m 3,2 km/h (1 Bft) 97,83 %
21.10.2022 04:08 13,3 C 12,2 C 9,4 C 97 % 1008,2 hPa 0,0 l/m 0 min 0 min 0 W/m 3,2 km/h (1 Bft) 95,74 %
21.10.2022 04:10 13,3 C 12,2 C 9,4 C 98 % 1008,2 hPa 0,0 l/m 0 min 0 min 0 W/m 3,2 km/h (1 Bft) 100,00 %
21.10.2022 04:12 13,3 C 12,2 C 9,4 C 98 % 1008,2 hPa 0,0 l/m 0 min 0 min 0 W/m 3,2 km/h (1 Bft) 97,87 %
21.10.2022 04:14 13,3 C 12,2 C 9,4 C 98 % 1008,2 hPa 0,0 l/m 0 min 0 min 0 W/m 3,2 km/h (1 Bft) 97,87 %
21.10.2022 04:16 13,3 C 12,2 C 10,0 C 98 % 1008,1 hPa 0,0 l/m 0 min 0 min 0 W/m 3,2 km/h (1 Bft) 100,00 %
21.10.2022 04:18 13,3 C 12,2 C 10,0 C 98 % 1008,1 hPa 0,0 l/m 0 min 0 min 0 W/m 3,2 km/h (1 Bft) 95,74 %
21.10.2022 04:20 13,3 C 12,2 C 10,0 C 98 % 1008,1 hPa 0,0 l/m 0 min 0 min 0 W/m 6,4 km/h (2 Bft) 97,83 %
21.10.2022 04:22 13,3 C 12,2 C 10,0 C 98 % 1008,1 hPa 0,0 l/m 0 min 0 min 0 W/m 6,4 km/h (2 Bft) 97,87 %
21.10.2022 04:24 13,4 C 12,8 C 10,0 C 98 % 1008,0 hPa 0,0 l/m 0 min 0 min 0 W/m 9,7 km/h (2 Bft) 95,74 %
21.10.2022 04:26 13,4 C 12,8 C 10,0 C 98 % 1008,0 hPa 0,0 l/m 0 min 0 min 0 W/m 6,4 km/h (2 Bft) 97,87 %
21.10.2022 04:28 13,4 C 12,8 C 10,0 C 98 % 1007,9 hPa 0,0 l/m 0 min 0 min 0 W/m 6,4 km/h (2 Bft) 95,74 %
21.10.2022 04:30 13,4 C 12,8 C 10,0 C 98 % 1007,9 hPa 0,0 l/m 0 min 0 min 0 W/m 6,4 km/h (2 Bft) 95,74 %
21.10.2022 04:32 13,4 C 12,8 C 10,0 C 98 % 1007,9 hPa 0,0 l/m 0 min 0 min 0 W/m 6,4 km/h (2 Bft) 95,65 %
21.10.2022 04:34 13,4 C 12,8 C 10,0 C 98 % 1007,9 hPa 0,0 l/m 0 min 0 min 0 W/m 6,4 km/h (2 Bft) 95,74 %
21.10.2022 04:36 13,4 C 12,8 C 10,0 C 98 % 1007,8 hPa 0,0 l/m 0 min 0 min 0 W/m 6,4 km/h (2 Bft) 97,87 %
21.10.2022 04:38 13,4 C 12,8 C 10,0 C 98 % 1007,8 hPa 0,0 l/m 0 min 0 min 0 W/m 3,2 km/h (1 Bft) 92,59 %
21.10.2022 04:40 13,4 C 12,2 C 10,0 C 98 % 1007,8 hPa 0,0 l/m 0 min 0 min 0 W/m 3,2 km/h (1 Bft) 95,65 %
21.10.2022 04:42 13,4 C 12,2 C 10,0 C 98 % 1007,8 hPa 0,0 l/m 0 min 0 min 0 W/m 6,4 km/h (2 Bft) 93,62 %
21.10.2022 04:44 13,4 C 12,2 C 10,0 C 98 % 1007,8 hPa 0,0 l/m 0 min 0 min 0 W/m 3,2 km/h (1 Bft) 93,62 %
21.10.2022 04:46 13,4 C 12,2 C 10,0 C 98 % 1007,8 hPa 0,0 l/m 0 min 0 min 0 W/m 6,4 km/h (2 Bft) 95,74 %
21.10.2022 04:48 13,4 C 12,8 C 10,0 C 98 % 1007,8 hPa 0,0 l/m 0 min 0 min 0 W/m 6,4 km/h (2 Bft) 93,62 %
21.10.2022 04:50 13,4 C 12,8 C 10,0 C 98 % 1007,8 hPa 0,0 l/m 0 min 0 min 0 W/m 9,7 km/h (2 Bft) 95,74 %
21.10.2022 04:52 13,4 C 12,8 C 10,0 C 98 % 1007,9 hPa 0,0 l/m 0 min 0 min 0 W/m 9,7 km/h (2 Bft) 93,48 %
21.10.2022 04:54 13,4 C 12,2 C 10,0 C 98 % 1007,8 hPa 0,0 l/m 0 min 0 min 0 W/m 3,2 km/h (1 Bft) 91,49 %
21.10.2022 04:56 13,4 C 12,8 C 10,0 C 98 % 1007,8 hPa 0,0 l/m 0 min 0 min 0 W/m 3,2 km/h (1 Bft) 93,62 %
21.10.2022 04:58 13,4 C 12,2 C 10,0 C 98 % 1007,9 hPa 0,0 l/m 0 min 0 min 0 W/m 6,4 km/h (2 Bft) 95,74 %
21.10.2022 05:00 13,3 C 12,2 C 10,0 C 98 % 1007,8 hPa 0,0 l/m 0 min 0 min 0 W/m 3,2 km/h (1 Bft) 95,74 %
21.10.2022 05:02 13,3 C 12,2 C 10,0 C 98 % 1007,8 hPa 0,0 l/m 0 min 0 min 0 W/m 9,7 km/h (2 Bft) 91,49 %
21.10.2022 05:04 13,3 C 12,8 C 10,0 C 98 % 1007,9 hPa 0,0 l/m 0 min 0 min 0 W/m 6,4 km/h (2 Bft) 95,65 %
21.10.2022 05:06 13,3 C 12,8 C 10,0 C 98 % 1007,8 hPa 0,0 l/m 0 min 0 min 0 W/m 6,4 km/h (2 Bft) 95,74 %
21.10.2022 05:08 13,3 C 12,2 C 10,0 C 98 % 1007,8 hPa 0,0 l/m 0 min 0 min 0 W/m 12,9 km/h (3 Bft) 97,87 %
21.10.2022 05:10 13,3 C 12,2 C 10,0 C 98 % 1007,7 hPa 0,0 l/m 0 min 0 min 0 W/m 12,9 km/h (3 Bft) 97,87 %
21.10.2022 05:12 13,3 C 12,2 C 10,0 C 98 % 1007,8 hPa 0,2 l/m 0 min 0 min 0 W/m 6,4 km/h (2 Bft) 95,74 %
21.10.2022 05:14 13,3 C 12,2 C 10,0 C 98 % 1007,8 hPa 0,0 l/m 0 min 0 min 0 W/m 6,4 km/h (2 Bft) 97,83 %
21.10.2022 05:16 13,3 C 12,2 C 10,0 C 98 % 1007,8 hPa 0,0 l/m 0 min 0 min 0 W/m 6,4 km/h (2 Bft) 97,87 %
21.10.2022 05:18 13,3 C 12,2 C 10,0 C 98 % 1007,8 hPa 0,0 l/m 0 min 0 min 0 W/m 6,4 km/h (2 Bft) 100,00 %
21.10.2022 05:20 13,3 C 12,2 C 10,0 C 98 % 1007,9 hPa 0,0 l/m 0 min 0 min 0 W/m 12,9 km/h (3 Bft) 100,00 %
21.10.2022 05:22 13,3 C 12,2 C 10,0 C 98 % 1007,9 hPa 0,0 l/m 0 min 0 min 0 W/m 6,4 km/h (2 Bft) 95,74 %
21.10.2022 05:24 13,3 C 12,2 C 10,0 C 98 % 1007,9 hPa 0,0 l/m 0 min 0 min 0 W/m 6,4 km/h (2 Bft) 97,87 %
21.10.2022 05:26 13,3 C 12,2 C 10,0 C 98 % 1007,9 hPa 0,0 l/m 0 min 0 min 0 W/m 6,4 km/h (2 Bft) 97,87 %
21.10.2022 05:28 13,3 C 12,2 C 10,0 C 98 % 1007,9 hPa 0,0 l/m 0 min 0 min 0 W/m 0,0 km/h (0 Bft) 97,83 %
21.10.2022 05:30 13,2 C 12,2 C 10,0 C 98 % 1007,9 hPa 0,0 l/m 0 min 0 min 0 W/m 6,4 km/h (2 Bft) 95,74 %
21.10.2022 05:32 13,2 C 12,2 C 10,0 C 98 % 1007,9 hPa 0,0 l/m 0 min 0 min 0 W/m 0,0 km/h (0 Bft) 97,87 %
21.10.2022 05:34 13,2 C 12,2 C 9,4 C 98 % 1007,9 hPa 0,0 l/m 0 min 0 min 0 W/m 0,0 km/h (0 Bft) 97,87 %
21.10.2022 05:36 13,2 C 12,2 C 9,4 C 98 % 1007,9 hPa 0,0 l/m 0 min 0 min 0 W/m 6,4 km/h (2 Bft) 97,87 %
21.10.2022 05:38 13,2 C 12,2 C 9,4 C 98 % 1007,9 hPa 0,0 l/m 0 min 0 min 0 W/m 3,2 km/h (1 Bft) 97,83 %
21.10.2022 05:40 13,2 C 12,2 C 9,4 C 98 % 1007,9 hPa 0,0 l/m 0 min 0 min 0 W/m 6,4 km/h (2 Bft) 97,87 %
21.10.2022 05:42 13,2 C 12,2 C 9,4 C 98 % 1007,8 hPa 0,0 l/m 0 min 0 min 0 W/m 3,2 km/h (1 Bft) 97,87 %
21.10.2022 05:44 13,1 C 12,2 C 10,0 C 98 % 1007,8 hPa 0,0 l/m 0 min 0 min 0 W/m 6,4 km/h (2 Bft) 97,87 %
21.10.2022 05:46 13,2 C 12,2 C 10,0 C 98 % 1007,9 hPa 0,0 l/m 0 min 0 min 0 W/m 6,4 km/h (2 Bft) 97,87 %
21.10.2022 05:48 13,2 C 12,2 C 10,0 C 98 % 1007,9 hPa 0,0 l/m 0 min 0 min 0 W/m 3,2 km/h (1 Bft) 97,87 %
21.10.2022 05:50 13,1 C 12,2 C 10,0 C 98 % 1007,9 hPa 0,0 l/m 0 min 0 min 0 W/m 3,2 km/h (1 Bft) 97,83 %
21.10.2022 05:52 13,1 C 12,2 C 10,0 C 98 % 1007,9 hPa 0,0 l/m 0 min 0 min 0 W/m 9,7 km/h (2 Bft) 97,87 %
21.10.2022 05:54 13,1 C 12,2 C 10,0 C 98 % 1007,8 hPa 0,0 l/m 0 min 0 min 0 W/m 6,4 km/h (2 Bft) 97,87 %
21.10.2022 05:56 13,1 C 12,2 C 10,0 C 98 % 1007,8 hPa 0,0 l/m 0 min 0 min 0 W/m 6,4 km/h (2 Bft) 100,00 %
21.10.2022 05:58 13,2 C 12,2 C 10,0 C 98 % 1007,7 hPa 0,0 l/m 0 min 0 min 0 W/m 3,2 km/h (1 Bft) 100,00 %
21.10.2022 06:00 13,2 C 12,2 C 10,0 C 98 % 1007,7 hPa 0,0 l/m 0 min 0 min 0 W/m 6,4 km/h (2 Bft) 100,00 %
21.10.2022 06:02 13,2 C 12,8 C 10,0 C 98 % 1007,8 hPa 0,0 l/m 0 min 0 min 0 W/m 12,9 km/h (3 Bft) 97,83 %
21.10.2022 06:04 13,2 C 12,8 C 10,0 C 98 % 1007,7 hPa 0,0 l/m 0 min 0 min 0 W/m 6,4 km/h (2 Bft) 100,00 %
21.10.2022 06:08 13,2 C 12,2 C 10,0 C 98 % 1007,6 hPa 0,0 l/m 0 min 0 min 0 W/m 16,1 km/h (3 Bft) 98,96 %
21.10.2022 06:10 13,2 C 12,2 C 10,0 C 98 % 1007,7 hPa 0,0 l/m 0 min 0 min 0 W/m 6,4 km/h (2 Bft) 100,00 %
21.10.2022 06:12 13,2 C 12,2 C 10,0 C 98 % 1007,6 hPa 0,0 l/m 0 min 0 min 0 W/m 6,4 km/h (2 Bft) 97,83 %
21.10.2022 06:14 13,2 C 12,2 C 10,0 C 98 % 1007,7 hPa 0,0 l/m 0 min 0 min 0 W/m 3,2 km/h (1 Bft) 100,00 %
21.10.2022 06:16 13,2 C 12,8 C 10,0 C 98 % 1007,8 hPa 0,0 l/m 0 min 0 min 0 W/m 6,4 km/h (2 Bft) 100,00 %
21.10.2022 06:18 13,2 C 12,8 C 10,0 C 98 % 1007,8 hPa 0,0 l/m 0 min 0 min 0 W/m 6,4 km/h (2 Bft) 97,87 %
21.10.2022 06:20 13,2 C 12,8 C 10,0 C 98 % 1007,8 hPa 0,0 l/m 0 min 0 min 0 W/m 3,2 km/h (1 Bft) 100,00 %
21.10.2022 06:22 13,2 C 12,8 C 10,0 C 98 % 1007,7 hPa 0,0 l/m 0 min 0 min 0 W/m 6,4 km/h (2 Bft) 100,00 %
21.10.2022 06:24 13,2 C 12,8 C 10,0 C 99 % 1007,7 hPa 0,0 l/m 0 min 0 min 0 W/m 12,9 km/h (3 Bft) 97,83 %
21.10.2022 06:26 13,3 C 12,8 C 10,0 C 99 % 1007,7 hPa 0,0 l/m 0 min 0 min 0 W/m 6,4 km/h (2 Bft) 100,00 %
21.10.2022 06:28 13,3 C 12,8 C 10,0 C 99 % 1007,8 hPa 0,0 l/m 0 min 0 min 0 W/m 6,4 km/h (2 Bft) 97,87 %
21.10.2022 06:30 13,3 C 12,8 C 10,0 C 99 % 1007,8 hPa 0,0 l/m 0 min 0 min 0 W/m 12,9 km/h (3 Bft) 100,00 %
21.10.2022 06:32 13,3 C 12,8 C 10,0 C 99 % 1007,8 hPa 0,0 l/m 0 min 0 min 0 W/m 6,4 km/h (2 Bft) 100,00 %
21.10.2022 06:34 13,3 C 12,8 C 10,0 C 99 % 1007,9 hPa 0,0 l/m 0 min 0 min 0 W/m 19,3 km/h (3 Bft) 100,00 %
21.10.2022 06:36 13,4 C 12,8 C 10,6 C 99 % 1007,7 hPa 0,0 l/m 0 min 0 min 0 W/m 6,4 km/h (2 Bft) 100,00 %
21.10.2022 06:38 13,4 C 12,8 C 10,6 C 99 % 1007,7 hPa 0,0 l/m 0 min 0 min 0 W/m 6,4 km/h (2 Bft) 100,00 %
21.10.2022 06:40 13,4 C 12,8 C 10,6 C 99 % 1007,7 hPa 0,0 l/m 0 min 0 min 0 W/m 9,7 km/h (2 Bft) 100,00 %
21.10.2022 06:42 13,4 C 12,8 C 10,6 C 98 % 1007,7 hPa 0,0 l/m 0 min 0 min 0 W/m 6,4 km/h (2 Bft) 100,00 %
21.10.2022 06:44 13,4 C 12,8 C 10,6 C 99 % 1007,7 hPa 0,0 l/m 0 min 0 min 0 W/m 3,2 km/h (1 Bft) 95,74 %
21.10.2022 06:46 13,4 C 12,8 C 10,6 C 98 % 1007,7 hPa 0,0 l/m 0 min 0 min 0 W/m 6,4 km/h (2 Bft) 100,00 %
21.10.2022 06:48 13,4 C 12,8 C 10,6 C 98 % 1007,8 hPa 0,0 l/m 0 min 0 min 0 W/m 6,4 km/h (2 Bft) 97,83 %
21.10.2022 06:50 13,4 C 12,8 C 10,6 C 98 % 1007,7 hPa 0,0 l/m 0 min 0 min 0 W/m 6,4 km/h (2 Bft) 100,00 %
21.10.2022 06:52 13,5 C 12,8 C 10,6 C 98 % 1007,7 hPa 0,0 l/m 0 min 0 min 0 W/m 3,2 km/h (1 Bft) 97,87 %
21.10.2022 06:54 13,4 C 12,8 C 10,6 C 98 % 1007,7 hPa 0,0 l/m 0 min 0 min 0 W/m 6,4 km/h (2 Bft) 100,00 %
21.10.2022 06:56 13,5 C 12,8 C 10,6 C 98 % 1007,7 hPa 0,0 l/m 0 min 0 min 0 W/m 6,4 km/h (2 Bft) 100,00 %
21.10.2022 06:58 13,5 C 12,8 C 10,6 C 98 % 1007,7 hPa 0,0 l/m 0 min 0 min 0 W/m 6,4 km/h (2 Bft) 100,00 %
21.10.2022 07:00 13,5 C 12,8 C 10,6 C 98 % 1007,7 hPa 0,0 l/m 0 min 0 min 0 W/m 3,2 km/h (1 Bft) 97,83 %
21.10.2022 07:02 13,5 C 12,8 C 10,6 C 98 % 1007,7 hPa 0,0 l/m 0 min 0 min 0 W/m 6,4 km/h (2 Bft) 100,00 %
21.10.2022 07:04 13,5 C 12,8 C 10,6 C 98 % 1007,7 hPa 0,0 l/m 0 min 0 min 0 W/m 6,4 km/h (2 Bft) 97,87 %
21.10.2022 07:06 13,5 C 12,8 C 10,6 C 98 % 1007,6 hPa 0,0 l/m 0 min 0 min 0 W/m 6,4 km/h (2 Bft) 97,87 %
21.10.2022 07:08 13,5 C 12,8 C 10,6 C 98 % 1007,6 hPa 0,0 l/m 0 min 0 min 0 W/m 6,4 km/h (2 Bft) 95,74 %
21.10.2022 07:10 13,5 C 12,8 C 10,6 C 98 % 1007,6 hPa 0,0 l/m 0 min 0 min 0 W/m 3,2 km/h (1 Bft) 95,74 %
21.10.2022 07:12 13,5 C 12,8 C 10,6 C 98 % 1007,6 hPa 0,0 l/m 0 min 0 min 0 W/m 6,4 km/h (2 Bft) 97,83 %
21.10.2022 07:14 13,5 C 12,8 C 10,6 C 98 % 1007,6 hPa 0,0 l/m 0 min 0 min 0 W/m 16,1 km/h (3 Bft) 95,74 %
21.10.2022 07:16 13,5 C 12,8 C 10,6 C 98 % 1007,5 hPa 0,0 l/m 0 min 0 min 0 W/m 6,4 km/h (2 Bft) 93,62 %
21.10.2022 07:18 13,5 C 12,8 C 10,6 C 98 % 1007,5 hPa 0,0 l/m 0 min 0 min 0 W/m 6,4 km/h (2 Bft) 95,74 %
21.10.2022 07:20 13,4 C 12,8 C 10,6 C 98 % 1007,4 hPa 0,0 l/m 0 min 0 min 0 W/m 6,4 km/h (2 Bft) 95,74 %
21.10.2022 07:22 13,4 C 12,8 C 10,6 C 98 % 1007,4 hPa 0,0 l/m 0 min 0 min 0 W/m 6,4 km/h (2 Bft) 91,49 %
21.10.2022 07:24 13,4 C 12,8 C 10,6 C 98 % 1007,5 hPa 0,0 l/m 0 min 0 min 0 W/m 6,4 km/h (2 Bft) 48,78 %
21.10.2022 07:26 13,4 C 12,8 C 10,6 C 98 % 1007,4 hPa 0,0 l/m 0 min 0 min 0 W/m 6,4 km/h (2 Bft) 92,50 %
21.10.2022 07:28 13,4 C 12,8 C 10,6 C 98 % 1007,4 hPa 0,0 l/m 0 min 0 min 0 W/m 6,4 km/h (2 Bft) 93,62 %
21.10.2022 07:30 13,4 C 12,8 C 10,6 C 98 % 1007,4 hPa 0,0 l/m 0 min 0 min 0 W/m 6,4 km/h (2 Bft) 91,49 %
21.10.2022 07:32 13,4 C 12,8 C 10,6 C 98 % 1007,3 hPa 0,0 l/m 0 min 0 min 0 W/m 3,2 km/h (1 Bft) 93,62 %
21.10.2022 07:34 13,4 C 12,8 C 10,6 C 98 % 1007,3 hPa 0,0 l/m 0 min 0 min 0 W/m 6,4 km/h (2 Bft) 93,48 %
21.10.2022 07:36 13,4 C 12,8 C 10,0 C 98 % 1007,3 hPa 0,0 l/m 0 min 0 min 0 W/m 6,4 km/h (2 Bft) 93,62 %
21.10.2022 07:38 13,4 C 12,8 C 10,0 C 98 % 1007,2 hPa 0,0 l/m 0 min 0 min 0 W/m 6,4 km/h (2 Bft) 95,74 %
21.10.2022 07:40 13,4 C 12,8 C 10,6 C 98 % 1007,2 hPa 0,0 l/m 0 min 0 min 0 W/m 6,4 km/h (2 Bft) 94,00 %
21.10.2022 07:42 13,4 C 12,8 C 10,6 C 98 % 1007,2 hPa 0,0 l/m 0 min 0 min 0 W/m 6,4 km/h (2 Bft) 93,62 %
21.10.2022 07:44 13,4 C 12,8 C 10,6 C 98 % 1007,1 hPa 0,0 l/m 0 min 0 min 0 W/m 3,2 km/h (1 Bft) 93,62 %
21.10.2022 07:46 13,4 C 12,8 C 10,0 C 98 % 1007,1 hPa 0,0 l/m 0 min 0 min 0 W/m 6,4 km/h (2 Bft) 91,30 %
21.10.2022 07:48 13,4 C 12,8 C 10,0 C 98 % 1007,1 hPa 0,0 l/m 0 min 0 min 0 W/m 3,2 km/h (1 Bft) 95,74 %
21.10.2022 07:50 13,3 C 12,8 C 10,0 C 98 % 1007,1 hPa 0,0 l/m 0 min 0 min 0 W/m 3,2 km/h (1 Bft) 97,87 %
21.10.2022 07:52 13,3 C 12,8 C 10,0 C 98 % 1007,1 hPa 0,0 l/m 0 min 0 min 0 W/m 6,4 km/h (2 Bft) 97,87 %
21.10.2022 07:54 13,3 C 12,8 C 10,0 C 98 % 1007,1 hPa 0,0 l/m 0 min 0 min 0 W/m 3,2 km/h (1 Bft) 97,87 %
21.10.2022 07:56 13,3 C 12,8 C 10,0 C 98 % 1007,1 hPa 0,0 l/m 0 min 0 min 0 W/m 6,4 km/h (2 Bft) 95,74 %
21.10.2022 07:58 13,3 C 12,8 C 10,0 C 98 % 1007,1 hPa 0,0 l/m 0 min 0 min 0 W/m 6,4 km/h (2 Bft) 97,83 %
21.10.2022 08:00 13,3 C 12,8 C 10,0 C 98 % 1007,0 hPa 0,0 l/m 0 min 0 min 0 W/m 6,4 km/h (2 Bft) 97,87 %
21.10.2022 08:02 13,3 C 12,8 C 10,0 C 98 % 1007,0 hPa 0,0 l/m 0 min 0 min 0 W/m 3,2 km/h (1 Bft) 97,87 %
21.10.2022 08:04 13,3 C 12,8 C 10,6 C 98 % 1007,1 hPa 0,0 l/m 0 min 0 min 0 W/m 6,4 km/h (2 Bft) 95,74 %
21.10.2022 08:06 13,3 C 12,8 C 10,6 C 98 % 1007,0 hPa 0,0 l/m 0 min 0 min 0 W/m 3,2 km/h (1 Bft) 97,87 %
21.10.2022 08:08 13,3 C 12,8 C 10,6 C 98 % 1007,1 hPa 0,0 l/m 0 min 0 min 0 W/m 6,4 km/h (2 Bft) 97,87 %
21.10.2022 08:10 13,4 C 12,8 C 10,6 C 98 % 1007,1 hPa 0,0 l/m 0 min 0 min 0 W/m 3,2 km/h (1 Bft) 95,65 %
21.10.2022 08:12 13,3 C 12,8 C 10,6 C 98 % 1007,1 hPa 0,0 l/m 0 min 0 min 0 W/m 3,2 km/h (1 Bft) 97,87 %
21.10.2022 08:14 13,4 C 12,8 C 10,0 C 98 % 1007,0 hPa 0,0 l/m 0 min 0 min 0 W/m 6,4 km/h (2 Bft) 97,87 %
21.10.2022 08:16 13,3 C 12,8 C 10,0 C 98 % 1007,0 hPa 0,0 l/m 0 min 0 min 0 W/m 3,2 km/h (1 Bft) 100,00 %
21.10.2022 08:18 13,3 C 12,8 C 10,0 C 98 % 1007,0 hPa 0,0 l/m 0 min 0 min 0 W/m 3,2 km/h (1 Bft) 100,00 %
21.10.2022 08:20 13,3 C 12,8 C 10,0 C 98 % 1007,1 hPa 0,0 l/m 0 min 0 min 0 W/m 3,2 km/h (1 Bft) 97,83 %
21.10.2022 08:22 13,3 C 12,8 C 10,0 C 98 % 1007,1 hPa 0,0 l/m 0 min 0 min 0 W/m 3,2 km/h (1 Bft) 97,87 %
21.10.2022 08:24 13,3 C 12,8 C 10,0 C 98 % 1007,0 hPa 0,0 l/m 0 min 0 min 0 W/m 0,0 km/h (0 Bft) 100,00 %
21.10.2022 08:26 13,3 C 12,8 C 10,0 C 98 % 1007,0 hPa 0,0 l/m 0 min 0 min 5 W/m 0,0 km/h (0 Bft) 100,00 %
21.10.2022 08:28 13,3 C 12,8 C 10,6 C 98 % 1007,0 hPa 0,0 l/m 0 min 0 min 5 W/m 0,0 km/h (0 Bft) 100,00 %
21.10.2022 08:30 13,4 C 12,8 C 10,6 C 98 % 1007,0 hPa 0,0 l/m 0 min 0 min 5 W/m 0,0 km/h (0 Bft) 97,87 %
21.10.2022 08:32 13,4 C 12,8 C 10,6 C 98 % 1007,0 hPa 0,0 l/m 0 min 0 min 7 W/m 0,0 km/h (0 Bft) 100,00 %
21.10.2022 08:34 13,4 C 12,8 C 10,6 C 98 % 1007,1 hPa 0,0 l/m 0 min 0 min 7 W/m 0,0 km/h (0 Bft) 100,00 %
21.10.2022 08:36 13,4 C 12,8 C 10,6 C 98 % 1007,1 hPa 0,0 l/m 0 min 0 min 7 W/m 0,0 km/h (0 Bft) 97,87 %
21.10.2022 08:38 13,4 C 12,8 C 10,6 C 98 % 1007,1 hPa 0,0 l/m 0 min 0 min 9 W/m 0,0 km/h (0 Bft) 100,00 %
21.10.2022 08:40 13,4 C 12,8 C 10,6 C 98 % 1007,2 hPa 0,0 l/m 0 min 0 min 10 W/m 0,0 km/h (0 Bft) 100,00 %
21.10.2022 08:42 13,5 C 12,8 C 10,6 C 98 % 1007,1 hPa 0,0 l/m 0 min 0 min 11 W/m 0,0 km/h (0 Bft) 100,00 %
21.10.2022 08:44 13,5 C 12,8 C 10,6 C 98 % 1007,1 hPa 0,0 l/m 0 min 0 min 12 W/m 0,0 km/h (0 Bft) 100,00 %
21.10.2022 08:46 13,5 C 12,8 C 10,6 C 98 % 1007,1 hPa 0,0 l/m 0 min 0 min 12 W/m 3,2 km/h (1 Bft) 100,00 %
21.10.2022 08:48 13,6 C 12,8 C 10,6 C 98 % 1007,0 hPa 0,0 l/m 0 min 0 min 12 W/m 3,2 km/h (1 Bft) 97,87 %
21.10.2022 08:50 13,6 C 12,8 C 10,6 C 98 % 1007,1 hPa 0,0 l/m 0 min 0 min 12 W/m 6,4 km/h (2 Bft) 100,00 %
21.10.2022 08:52 13,6 C 12,8 C 10,6 C 98 % 1007,1 hPa 0,0 l/m 0 min 0 min 14 W/m 3,2 km/h (1 Bft) 100,00 %
21.10.2022 08:54 13,6 C 12,8 C 10,6 C 98 % 1007,1 hPa 0,0 l/m 0 min 0 min 14 W/m 3,2 km/h (1 Bft) 100,00 %
21.10.2022 08:56 13,6 C 13,3 C 10,6 C 98 % 1007,2 hPa 0,0 l/m 0 min 0 min 12 W/m 3,2 km/h (1 Bft) 100,00 %
21.10.2022 08:58 13,6 C 13,3 C 10,6 C 98 % 1007,2 hPa 0,0 l/m 0 min 0 min 14 W/m 6,4 km/h (2 Bft) 100,00 %
21.10.2022 09:00 13,6 C 13,3 C 10,6 C 98 % 1007,3 hPa 0,0 l/m 0 min 0 min 14 W/m 3,2 km/h (1 Bft) 100,00 %
21.10.2022 09:02 13,7 C 13,3 C 10,6 C 98 % 1007,3 hPa 0,0 l/m 0 min 0 min 15 W/m 6,4 km/h (2 Bft) 97,83 %
21.10.2022 09:04 13,7 C 13,3 C 10,6 C 98 % 1007,5 hPa 0,0 l/m 0 min 0 min 18 W/m 3,2 km/h (1 Bft) 100,00 %
21.10.2022 09:06 13,7 C 13,3 C 10,6 C 98 % 1007,4 hPa 0,0 l/m 0 min 0 min 19 W/m 6,4 km/h (2 Bft) 100,00 %
21.10.2022 09:08 13,7 C 13,3 C 10,6 C 98 % 1007,5 hPa 0,0 l/m 0 min 0 min 19 W/m 3,2 km/h (1 Bft) 97,14 %
21.10.2022 09:10 13,7 C 13,3 C 10,6 C 98 % 1007,5 hPa 0,0 l/m 0 min 0 min 18 W/m 3,2 km/h (1 Bft) 97,87 %
21.10.2022 09:12 13,7 C 13,3 C 11,1 C 98 % 1007,5 hPa 0,0 l/m 0 min 0 min 16 W/m 6,4 km/h (2 Bft) 95,74 %
21.10.2022 09:14 13,8 C 13,3 C 11,1 C 98 % 1007,7 hPa 0,0 l/m 0 min 0 min 12 W/m 3,2 km/h (1 Bft) 95,65 %
21.10.2022 09:16 13,8 C 13,3 C 11,1 C 98 % 1007,9 hPa 0,0 l/m 0 min 0 min 11 W/m 6,4 km/h (2 Bft) 97,87 %
21.10.2022 09:18 13,8 C 13,3 C 11,1 C 98 % 1008,0 hPa 0,0 l/m 0 min 0 min 12 W/m 3,2 km/h (1 Bft) 97,87 %
21.10.2022 09:20 13,8 C 13,3 C 11,1 C 98 % 1008,0 hPa 0,0 l/m 0 min 0 min 14 W/m 6,4 km/h (2 Bft) 97,87 %
21.10.2022 09:22 13,8 C 13,3 C 11,1 C 98 % 1007,9 hPa 0,0 l/m 0 min 0 min 16 W/m 6,4 km/h (2 Bft) 97,87 %
21.10.2022 09:24 13,8 C 13,3 C 11,1 C 98 % 1007,9 hPa 0,0 l/m 0 min 0 min 19 W/m 6,4 km/h (2 Bft) 97,83 %
21.10.2022 09:26 13,9 C 13,3 C 11,1 C 98 % 1007,9 hPa 0,0 l/m 0 min 0 min 19 W/m 3,2 km/h (1 Bft) 97,87 %
21.10.2022 09:28 13,9 C 13,3 C 11,1 C 98 % 1008,0 hPa 0,0 l/m 0 min 0 min 17 W/m 6,4 km/h (2 Bft) 95,74 %
21.10.2022 09:30 13,9 C 13,3 C 11,1 C 98 % 1008,0 hPa 0,0 l/m 0 min 0 min 17 W/m 6,4 km/h (2 Bft) 97,87 %
21.10.2022 09:32 13,9 C 13,3 C 11,1 C 98 % 1008,0 hPa 0,0 l/m 0 min 0 min 19 W/m 6,4 km/h (2 Bft) 97,87 %
21.10.2022 09:34 13,9 C 13,3 C 11,1 C 98 % 1008,0 hPa 0,0 l/m 0 min 0 min 20 W/m 3,2 km/h (1 Bft) 97,87 %
21.10.2022 09:36 14,0 C 13,9 C 11,1 C 98 % 1008,1 hPa 0,0 l/m 0 min 0 min 18 W/m 16,1 km/h (3 Bft) 93,10 %
21.10.2022 09:38 14,0 C 13,9 C 11,1 C 98 % 1008,1 hPa 0,0 l/m 0 min 0 min 15 W/m 12,9 km/h (3 Bft) 97,14 %
21.10.2022 09:40 14,0 C 13,9 C 11,1 C 98 % 1008,1 hPa 0,0 l/m 0 min 0 min 12 W/m 6,4 km/h (2 Bft) 97,87 %
21.10.2022 09:42 14,0 C 13,3 C 11,1 C 98 % 1008,1 hPa 0,0 l/m 0 min 0 min 12 W/m 6,4 km/h (2 Bft) 100,00 %
21.10.2022 09:44 14,1 C 13,3 C 11,1 C 98 % 1008,1 hPa 0,0 l/m 0 min 0 min 16 W/m 6,4 km/h (2 Bft) 100,00 %
21.10.2022 09:46 14,1 C 13,9 C 11,1 C 98 % 1008,0 hPa 0,0 l/m 0 min 0 min 23 W/m 9,7 km/h (2 Bft) 97,87 %
21.10.2022 09:48 14,1 C 13,9 C 11,1 C 98 % 1008,0 hPa 0,0 l/m 0 min 0 min 28 W/m 6,4 km/h (2 Bft) 97,83 %
21.10.2022 09:50 14,1 C 13,9 C 11,1 C 98 % 1008,0 hPa 0,0 l/m 0 min 0 min 33 W/m 3,2 km/h (1 Bft) 97,87 %
21.10.2022 09:52 14,1 C 13,9 C 11,1 C 98 % 1008,0 hPa 0,0 l/m 0 min 0 min 35 W/m 6,4 km/h (2 Bft) 97,87 %
21.10.2022 09:54 14,1 C 13,9 C 11,1 C 98 % 1008,0 hPa 0,0 l/m 0 min 0 min 35 W/m 6,4 km/h (2 Bft) 97,87 %
21.10.2022 09:56 14,2 C 13,9 C 11,1 C 98 % 1008,0 hPa 0,0 l/m 0 min 0 min 35 W/m 3,2 km/h (1 Bft) 97,87 %
21.10.2022 09:58 14,2 C 13,9 C 11,1 C 98 % 1008,0 hPa 0,0 l/m 0 min 0 min 34 W/m 6,4 km/h (2 Bft) 97,87 %
21.10.2022 10:00 14,3 C 13,9 C 11,1 C 98 % 1007,9 hPa 0,0 l/m 0 min 0 min 33 W/m 12,9 km/h (3 Bft) 97,83 %
21.10.2022 10:02 14,3 C 13,9 C 11,1 C 98 % 1007,9 hPa 0,0 l/m 0 min 0 min 33 W/m 6,4 km/h (2 Bft) 97,87 %
21.10.2022 10:04 14,3 C 13,9 C 11,1 C 98 % 1008,0 hPa 0,0 l/m 0 min 0 min 32 W/m 16,1 km/h (3 Bft) 97,87 %
21.10.2022 10:06 14,3 C 13,9 C 11,1 C 98 % 1007,9 hPa 0,0 l/m 0 min 0 min 32 W/m 12,9 km/h (3 Bft) 96,61 %
21.10.2022 10:08 14,3 C 13,9 C 11,1 C 98 % 1007,9 hPa 0,0 l/m 0 min 0 min 31 W/m 6,4 km/h (2 Bft) 100,00 %
21.10.2022 10:10 14,3 C 13,9 C 11,1 C 98 % 1007,9 hPa 0,0 l/m 0 min 0 min 30 W/m 12,9 km/h (3 Bft) 97,87 %
21.10.2022 10:12 14,3 C 13,9 C 11,1 C 98 % 1007,9 hPa 0,0 l/m 0 min 0 min 30 W/m 6,4 km/h (2 Bft) 95,65 %
21.10.2022 10:14 14,3 C 13,9 C 11,1 C 98 % 1008,0 hPa 0,0 l/m 0 min 0 min 28 W/m 16,1 km/h (3 Bft) 97,87 %
21.10.2022 10:16 14,3 C 13,9 C 11,1 C 98 % 1007,9 hPa 0,0 l/m 0 min 0 min 29 W/m 6,4 km/h (2 Bft) 93,62 %
21.10.2022 10:18 14,3 C 13,9 C 11,1 C 98 % 1007,9 hPa 0,0 l/m 0 min 0 min 28 W/m 22,5 km/h (4 Bft) 97,87 %
21.10.2022 10:20 14,3 C 13,9 C 11,1 C 98 % 1007,9 hPa 0,0 l/m 0 min 0 min 28 W/m 12,9 km/h (3 Bft) 97,87 %
21.10.2022 10:22 14,3 C 13,9 C 11,1 C 98 % 1008,0 hPa 0,0 l/m 0 min 0 min 28 W/m 12,9 km/h (3 Bft) 97,87 %
21.10.2022 10:24 14,3 C 13,9 C 11,1 C 98 % 1008,0 hPa 0,0 l/m 0 min 0 min 27 W/m 6,4 km/h (2 Bft) 97,83 %
21.10.2022 10:26 14,3 C 13,9 C 11,1 C 98 % 1008,0 hPa 0,0 l/m 0 min 0 min 27 W/m 12,9 km/h (3 Bft) 91,49 %
21.10.2022 10:28 14,3 C 13,9 C 11,1 C 98 % 1008,0 hPa 0,0 l/m 0 min 0 min 28 W/m 6,4 km/h (2 Bft) 93,62 %
21.10.2022 10:30 14,3 C 13,9 C 11,1 C 98 % 1008,1 hPa 0,0 l/m 0 min 0 min 30 W/m 6,4 km/h (2 Bft) 93,62 %
21.10.2022 10:32 14,3 C 13,9 C 11,1 C 98 % 1008,0 hPa 0,0 l/m 0 min 0 min 32 W/m 12,9 km/h (3 Bft) 95,74 %
21.10.2022 10:34 14,3 C 13,9 C 11,1 C 98 % 1008,1 hPa 0,0 l/m 0 min 0 min 33 W/m 9,7 km/h (2 Bft) 95,65 %
21.10.2022 10:36 14,4 C 13,9 C 11,1 C 98 % 1008,0 hPa 0,0 l/m 0 min 0 min 33 W/m 6,4 km/h (2 Bft) 96,61 %
21.10.2022 10:38 14,3 C 13,9 C 11,1 C 98 % 1008,0 hPa 0,0 l/m 0 min 0 min 33 W/m 3,2 km/h (1 Bft) 94,29 %
21.10.2022 10:40 14,4 C 13,9 C 11,1 C 98 % 1007,9 hPa 0,0 l/m 0 min 0 min 34 W/m 12,9 km/h (3 Bft) 98,21 %
21.10.2022 10:42 14,4 C 13,9 C 11,1 C 98 % 1007,9 hPa 0,0 l/m 0 min 0 min 35 W/m 6,4 km/h (2 Bft) 95,65 %
21.10.2022 10:44 14,4 C 13,9 C 11,1 C 98 % 1007,9 hPa 0,0 l/m 0 min 0 min 35 W/m 6,4 km/h (2 Bft) 97,87 %
21.10.2022 10:46 14,4 C 13,9 C 11,7 C 98 % 1007,9 hPa 0,0 l/m 0 min 0 min 35 W/m 6,4 km/h (2 Bft) 97,87 %
21.10.2022 10:48 14,4 C 13,9 C 11,7 C 98 % 1007,9 hPa 0,0 l/m 0 min 0 min 35 W/m 6,4 km/h (2 Bft) 95,74 %
21.10.2022 10:50 14,5 C 13,9 C 11,7 C 98 % 1008,0 hPa 0,0 l/m 0 min 0 min 35 W/m 12,9 km/h (3 Bft) 97,87 %
21.10.2022 10:52 14,5 C 13,9 C 11,7 C 98 % 1008,0 hPa 0,0 l/m 0 min 0 min 35 W/m 6,4 km/h (2 Bft) 97,87 %
21.10.2022 10:54 14,5 C 13,9 C 11,7 C 98 % 1007,9 hPa 0,0 l/m 0 min 0 min 35 W/m 12,9 km/h (3 Bft) 93,48 %
21.10.2022 10:56 14,6 C 13,9 C 11,7 C 98 % 1007,9 hPa 0,0 l/m 0 min 0 min 37 W/m 9,7 km/h (2 Bft) 97,87 %
21.10.2022 10:58 14,6 C 13,9 C 11,7 C 98 % 1008,0 hPa 0,0 l/m 0 min 0 min 39 W/m 6,4 km/h (2 Bft) 95,74 %
21.10.2022 11:00 14,6 C 13,9 C 11,7 C 98 % 1008,1 hPa 0,0 l/m 0 min 0 min 42 W/m 6,4 km/h (2 Bft) 95,74 %
21.10.2022 11:02 14,6 C 13,9 C 11,7 C 98 % 1008,1 hPa 0,0 l/m 0 min 0 min 49 W/m 16,1 km/h (3 Bft) 95,74 %
21.10.2022 11:04 14,6 C 14,4 C 11,7 C 98 % 1008,1 hPa 0,0 l/m 0 min 0 min 58 W/m 12,9 km/h (3 Bft) 93,62 %
21.10.2022 11:06 14,6 C 14,4 C 11,7 C 98 % 1008,1 hPa 0,0 l/m 0 min 0 min 68 W/m 6,4 km/h (2 Bft) 91,30 %
21.10.2022 11:08 14,7 C 14,4 C 11,7 C 98 % 1008,1 hPa 0,0 l/m 0 min 0 min 76 W/m 6,4 km/h (2 Bft) 95,74 %
21.10.2022 11:10 14,7 C 14,4 C 11,7 C 98 % 1008,2 hPa 0,0 l/m 0 min 0 min 80 W/m 12,9 km/h (3 Bft) 96,00 %
21.10.2022 11:12 14,7 C 14,4 C 11,7 C 98 % 1008,2 hPa 0,0 l/m 0 min 0 min 81 W/m 12,9 km/h (3 Bft) 93,62 %
21.10.2022 11:14 14,8 C 14,4 C 11,7 C 98 % 1008,2 hPa 0,0 l/m 0 min 0 min 78 W/m 16,1 km/h (3 Bft) 95,74 %
21.10.2022 11:16 14,8 C 14,4 C 11,7 C 98 % 1008,2 hPa 0,0 l/m 0 min 0 min 75 W/m 6,4 km/h (2 Bft) 97,83 %
21.10.2022 11:18 14,8 C 14,4 C 11,7 C 98 % 1008,3 hPa 0,0 l/m 0 min 0 min 76 W/m 9,7 km/h (2 Bft) 95,74 %
21.10.2022 11:20 14,8 C 14,4 C 11,7 C 98 % 1008,3 hPa 0,0 l/m 0 min 0 min 76 W/m 12,9 km/h (3 Bft) 95,74 %
21.10.2022 11:22 14,9 C 14,4 C 11,7 C 98 % 1008,4 hPa 0,0 l/m 0 min 0 min 67 W/m 6,4 km/h (2 Bft) 95,74 %
21.10.2022 11:24 14,9 C 14,4 C 11,7 C 98 % 1008,4 hPa 0,0 l/m 0 min 0 min 54 W/m 12,9 km/h (3 Bft) 95,74 %
21.10.2022 11:26 14,9 C 14,4 C 11,7 C 98 % 1008,6 hPa 0,0 l/m 0 min 0 min 53 W/m 12,9 km/h (3 Bft) 97,87 %
21.10.2022 11:28 14,9 C 14,4 C 11,7 C 98 % 1008,5 hPa 0,0 l/m 0 min 0 min 45 W/m 12,9 km/h (3 Bft) 97,83 %
21.10.2022 11:30 14,9 C 14,4 C 11,7 C 98 % 1008,5 hPa 0,0 l/m 0 min 0 min 39 W/m 9,7 km/h (2 Bft) 93,62 %
21.10.2022 11:32 14,9 C 14,4 C 11,7 C 98 % 1008,5 hPa 0,0 l/m 0 min 0 min 40 W/m 12,9 km/h (3 Bft) 95,74 %
21.10.2022 11:34 15,0 C 14,4 C 11,7 C 98 % 1008,5 hPa 0,0 l/m 0 min 0 min 49 W/m 12,9 km/h (3 Bft) 97,87 %
21.10.2022 11:36 15,0 C 14,4 C 11,7 C 98 % 1008,6 hPa 0,0 l/m 0 min 0 min 56 W/m 6,4 km/h (2 Bft) 97,87 %
21.10.2022 11:38 15,0 C 14,4 C 12,2 C 98 % 1008,6 hPa 0,0 l/m 0 min 0 min 60 W/m 6,4 km/h (2 Bft) 100,00 %
21.10.2022 11:40 15,0 C 14,4 C 12,2 C 98 % 1008,6 hPa 0,0 l/m 0 min 0 min 59 W/m 6,4 km/h (2 Bft) 100,00 %
21.10.2022 11:42 15,1 C 14,4 C 12,2 C 98 % 1008,5 hPa 0,0 l/m 0 min 0 min 54 W/m 3,2 km/h (1 Bft) 95,74 %
21.10.2022 11:44 15,1 C 14,4 C 12,2 C 98 % 1008,5 hPa 0,0 l/m 0 min 0 min 48 W/m 6,4 km/h (2 Bft) 100,00 %
21.10.2022 11:46 15,1 C 14,4 C 12,2 C 98 % 1008,5 hPa 0,0 l/m 0 min 0 min 43 W/m 12,9 km/h (3 Bft) 100,00 %
21.10.2022 11:48 15,1 C 14,4 C 12,2 C 98 % 1008,6 hPa 0,0 l/m 0 min 0 min 40 W/m 12,9 km/h (3 Bft) 100,00 %
21.10.2022 11:50 15,1 C 14,4 C 12,2 C 98 % 1008,6 hPa 0,0 l/m 0 min 0 min 40 W/m 6,4 km/h (2 Bft) 100,00 %
21.10.2022 11:52 15,1 C 14,4 C 12,2 C 98 % 1008,7 hPa 0,0 l/m 0 min 0 min 40 W/m 3,2 km/h (1 Bft) 97,83 %
21.10.2022 11:54 15,1 C 14,4 C 12,2 C 98 % 1008,7 hPa 0,0 l/m 0 min 0 min 39 W/m 16,1 km/h (3 Bft) 97,87 %
21.10.2022 11:56 15,1 C 14,4 C 12,2 C 98 % 1008,7 hPa 0,0 l/m 0 min 0 min 40 W/m 12,9 km/h (3 Bft) 100,00 %
21.10.2022 11:58 15,1 C 14,4 C 12,2 C 98 % 1008,7 hPa 0,0 l/m 0 min 0 min 40 W/m 6,4 km/h (2 Bft) 100,00 %
21.10.2022 12:00 15,1 C 14,4 C 12,2 C 98 % 1008,8 hPa 0,0 l/m 0 min 0 min 40 W/m 6,4 km/h (2 Bft) 100,00 %
21.10.2022 12:02 15,1 C 14,4 C 12,2 C 98 % 1008,7 hPa 0,0 l/m 0 min 0 min 39 W/m 6,4 km/h (2 Bft) 100,00 %
21.10.2022 12:04 15,1 C 14,4 C 12,2 C 98 % 1008,7 hPa 0,0 l/m 0 min 0 min 39 W/m 6,4 km/h (2 Bft) 100,00 %
21.10.2022 12:08 15,1 C 14,4 C 12,2 C 98 % 1008,8 hPa 0,0 l/m 0 min 0 min 43 W/m 12,9 km/h (3 Bft) 98,80 %
21.10.2022 12:10 15,1 C 14,4 C 12,2 C 98 % 1008,7 hPa 0,0 l/m 0 min 0 min 48 W/m 6,4 km/h (2 Bft) 100,00 %
21.10.2022 12:12 15,1 C 14,4 C 12,2 C 98 % 1008,9 hPa 0,0 l/m 0 min 0 min 48 W/m 6,4 km/h (2 Bft) 100,00 %
21.10.2022 12:14 15,1 C 14,4 C 12,2 C 98 % 1008,9 hPa 0,0 l/m 0 min 2 min 44 W/m 6,4 km/h (2 Bft) 97,87 %
21.10.2022 12:16 15,1 C 14,4 C 11,7 C 98 % 1008,8 hPa 0,0 l/m 0 min 0 min 45 W/m 6,4 km/h (2 Bft) 97,87 %
21.10.2022 12:18 15,1 C 14,4 C 11,7 C 98 % 1008,8 hPa 0,0 l/m 0 min 2 min 41 W/m 6,4 km/h (2 Bft) 100,00 %
21.10.2022 12:20 15,1 C 14,4 C 11,7 C 98 % 1008,7 hPa 0,0 l/m 0 min 0 min 39 W/m 3,2 km/h (1 Bft) 100,00 %
21.10.2022 12:22 15,1 C 14,4 C 11,7 C 98 % 1008,7 hPa 0,0 l/m 0 min 0 min 37 W/m 9,7 km/h (2 Bft) 100,00 %
21.10.2022 12:24 15,1 C 14,4 C 11,7 C 98 % 1008,8 hPa 0,0 l/m 0 min 0 min 38 W/m 6,4 km/h (2 Bft) 97,87 %
21.10.2022 12:26 15,1 C 14,4 C 11,7 C 98 % 1008,9 hPa 0,0 l/m 0 min 0 min 43 W/m 6,4 km/h (2 Bft) 100,00 %
21.10.2022 12:28 15,2 C 14,4 C 11,7 C 98 % 1008,9 hPa 0,0 l/m 0 min 0 min 50 W/m 6,4 km/h (2 Bft) 100,00 %
21.10.2022 12:30 15,1 C 14,4 C 11,7 C 98 % 1009,0 hPa 0,0 l/m 0 min 0 min 53 W/m 3,2 km/h (1 Bft) 97,87 %
21.10.2022 12:32 15,2 C 14,4 C 11,7 C 98 % 1008,9 hPa 0,0 l/m 0 min 0 min 61 W/m 6,4 km/h (2 Bft) 97,83 %
21.10.2022 12:34 15,2 C 14,4 C 11,7 C 98 % 1008,9 hPa 0,0 l/m 0 min 0 min 78 W/m 3,2 km/h (1 Bft) 97,87 %
21.10.2022 12:36 15,2 C 14,4 C 11,7 C 98 % 1008,8 hPa 0,0 l/m 0 min 0 min 92 W/m 6,4 km/h (2 Bft) 96,61 %
21.10.2022 12:38 15,2 C 15,0 C 12,2 C 98 % 1008,8 hPa 0,0 l/m 0 min 0 min 100 W/m 3,2 km/h (1 Bft) 97,14 %
21.10.2022 12:40 15,2 C 15,0 C 12,2 C 98 % 1008,9 hPa 0,0 l/m 0 min 0 min 109 W/m 3,2 km/h (1 Bft) 97,87 %
21.10.2022 12:42 15,2 C 15,0 C 12,2 C 98 % 1008,9 hPa 0,0 l/m 0 min 0 min 124 W/m 3,2 km/h (1 Bft) 97,87 %
21.10.2022 12:44 15,2 C 15,0 C 12,2 C 98 % 1008,8 hPa 0,0 l/m 0 min 0 min 142 W/m 3,2 km/h (1 Bft) 97,83 %
21.10.2022 12:46 15,3 C 15,0 C 12,2 C 98 % 1008,8 hPa 0,0 l/m 0 min 0 min 142 W/m 3,2 km/h (1 Bft) 95,74 %
21.10.2022 12:48 15,3 C 15,6 C 12,2 C 98 % 1008,9 hPa 0,0 l/m 0 min 0 min 131 W/m 3,2 km/h (1 Bft) 97,87 %
21.10.2022 12:50 15,3 C 15,6 C 12,2 C 98 % 1008,9 hPa 0,0 l/m 0 min 0 min 136 W/m 3,2 km/h (1 Bft) 97,87 %
21.10.2022 12:52 15,4 C 15,6 C 12,2 C 98 % 1008,9 hPa 0,0 l/m 0 min 0 min 143 W/m 6,4 km/h (2 Bft) 97,87 %
21.10.2022 12:54 15,4 C 15,6 C 12,8 C 98 % 1008,9 hPa 0,0 l/m 0 min 0 min 136 W/m 6,4 km/h (2 Bft) 97,87 %
21.10.2022 12:56 15,4 C 15,6 C 12,8 C 98 % 1009,0 hPa 0,0 l/m 0 min 0 min 126 W/m 3,2 km/h (1 Bft) 97,83 %
21.10.2022 12:58 15,4 C 15,6 C 12,8 C 98 % 1008,9 hPa 0,0 l/m 0 min 0 min 117 W/m 12,9 km/h (3 Bft) 95,74 %
21.10.2022 13:00 15,5 C 15,6 C 12,8 C 98 % 1008,9 hPa 0,0 l/m 0 min 0 min 112 W/m 6,4 km/h (2 Bft) 97,87 %
21.10.2022 13:02 15,5 C 15,6 C 12,8 C 98 % 1008,9 hPa 0,0 l/m 0 min 0 min 110 W/m 6,4 km/h (2 Bft) 93,62 %
21.10.2022 13:04 15,5 C 15,6 C 12,8 C 98 % 1008,9 hPa 0,0 l/m 0 min 0 min 115 W/m 3,2 km/h (1 Bft) 97,87 %
21.10.2022 13:06 15,5 C 15,6 C 12,8 C 98 % 1008,9 hPa 0,0 l/m 0 min 0 min 117 W/m 3,2 km/h (1 Bft) 94,83 %
21.10.2022 13:08 15,6 C 15,6 C 12,8 C 98 % 1008,9 hPa 0,0 l/m 0 min 0 min 117 W/m 6,4 km/h (2 Bft) 94,29 %
21.10.2022 13:10 15,6 C 15,6 C 12,8 C 98 % 1008,8 hPa 0,0 l/m 0 min 0 min 123 W/m 6,4 km/h (2 Bft) 96,30 %
21.10.2022 13:12 15,6 C 15,6 C 12,8 C 98 % 1008,9 hPa 0,0 l/m 0 min 0 min 119 W/m 6,4 km/h (2 Bft) 93,62 %
21.10.2022 13:14 15,6 C 15,6 C 12,8 C 98 % 1008,9 hPa 0,0 l/m 0 min 0 min 115 W/m 3,2 km/h (1 Bft) 93,48 %
21.10.2022 13:16 15,6 C 15,6 C 12,8 C 98 % 1008,9 hPa 0,0 l/m 0 min 0 min 118 W/m 6,4 km/h (2 Bft) 95,74 %
21.10.2022 13:18 15,6 C 15,6 C 12,8 C 98 % 1008,9 hPa 0,0 l/m 0 min 0 min 120 W/m 0,0 km/h (0 Bft) 89,36 %
21.10.2022 13:20 15,7 C 15,6 C 12,8 C 98 % 1008,9 hPa 0,0 l/m 0 min 0 min 128 W/m 3,2 km/h (1 Bft) 93,62 %
21.10.2022 13:22 15,7 C 16,1 C 12,8 C 98 % 1008,9 hPa 0,0 l/m 0 min 0 min 140 W/m 6,4 km/h (2 Bft) 93,62 %
21.10.2022 13:24 15,7 C 16,1 C 12,8 C 98 % 1008,9 hPa 0,0 l/m 0 min 0 min 152 W/m 6,4 km/h (2 Bft) 95,74 %
21.10.2022 13:26 15,7 C 16,1 C 12,8 C 98 % 1008,8 hPa 0,0 l/m 0 min 0 min 161 W/m 3,2 km/h (1 Bft) 95,74 %
21.10.2022 13:28 15,8 C 16,1 C 12,8 C 98 % 1008,8 hPa 0,0 l/m 0 min 0 min 168 W/m 3,2 km/h (1 Bft) 95,65 %
21.10.2022 13:30 15,8 C 16,1 C 12,8 C 98 % 1008,8 hPa 0,0 l/m 0 min 0 min 180 W/m 6,4 km/h (2 Bft) 93,62 %
21.10.2022 13:32 15,8 C 16,1 C 13,3 C 98 % 1008,9 hPa 0,0 l/m 0 min 0 min 185 W/m 6,4 km/h (2 Bft) 95,74 %
21.10.2022 13:34 15,9 C 16,1 C 13,3 C 98 % 1008,8 hPa 0,0 l/m 0 min 0 min 185 W/m 3,2 km/h (1 Bft) 93,62 %
21.10.2022 13:36 15,9 C 16,7 C 13,3 C 98 % 1008,7 hPa 0,0 l/m 0 min 0 min 185 W/m 3,2 km/h (1 Bft) 97,87 %
21.10.2022 13:38 15,9 C 16,7 C 13,3 C 98 % 1008,8 hPa 0,0 l/m 0 min 0 min 187 W/m 6,4 km/h (2 Bft) 97,83 %
21.10.2022 13:40 16,0 C 16,7 C 13,3 C 98 % 1008,8 hPa 0,0 l/m 0 min 0 min 194 W/m 9,7 km/h (2 Bft) 97,87 %
21.10.2022 13:42 16,0 C 16,7 C 13,3 C 98 % 1008,7 hPa 0,0 l/m 0 min 0 min 207 W/m 6,4 km/h (2 Bft) 100,00 %
21.10.2022 13:44 16,1 C 16,7 C 13,3 C 98 % 1008,7 hPa 0,0 l/m 0 min 0 min 217 W/m 3,2 km/h (1 Bft) 95,74 %
21.10.2022 13:46 16,1 C 17,2 C 13,3 C 98 % 1008,8 hPa 0,0 l/m 0 min 0 min 225 W/m 3,2 km/h (1 Bft) 97,87 %
21.10.2022 13:48 16,2 C 17,2 C 13,9 C 98 % 1008,7 hPa 0,0 l/m 2 min 0 min 248 W/m 6,4 km/h (2 Bft) 97,87 %
21.10.2022 13:50 16,2 C 17,2 C 13,9 C 98 % 1008,7 hPa 0,0 l/m 2 min 0 min 247 W/m 3,2 km/h (1 Bft) 97,83 %
21.10.2022 13:52 16,3 C 17,8 C 13,9 C 98 % 1008,7 hPa 0,0 l/m 2 min 0 min 244 W/m 6,4 km/h (2 Bft) 91,49 %
21.10.2022 13:54 16,3 C 17,8 C 13,9 C 98 % 1008,7 hPa 0,0 l/m 2 min 0 min 258 W/m 3,2 km/h (1 Bft) 100,00 %
21.10.2022 13:56 16,4 C 18,3 C 13,9 C 98 % 1008,7 hPa 0,0 l/m 2 min 0 min 270 W/m 3,2 km/h (1 Bft) 100,00 %
21.10.2022 13:58 16,5 C 18,3 C 14,4 C 98 % 1008,6 hPa 0,0 l/m 2 min 0 min 255 W/m 12,9 km/h (3 Bft) 97,87 %
21.10.2022 14:00 16,6 C 18,3 C 14,4 C 97 % 1008,6 hPa 0,0 l/m 2 min 0 min 232 W/m 3,2 km/h (1 Bft) 100,00 %
21.10.2022 14:02 16,6 C 18,3 C 14,4 C 97 % 1008,5 hPa 0,0 l/m 2 min 0 min 250 W/m 3,2 km/h (1 Bft) 95,65 %
21.10.2022 14:04 16,7 C 18,9 C 14,4 C 97 % 1008,5 hPa 0,0 l/m 2 min 0 min 294 W/m 6,4 km/h (2 Bft) 100,00 %
21.10.2022 14:06 16,7 C 18,9 C 14,4 C 97 % 1008,5 hPa 0,0 l/m 2 min 0 min 270 W/m 6,4 km/h (2 Bft) 97,87 %
21.10.2022 14:08 16,8 C 18,3 C 14,4 C 97 % 1008,5 hPa 0,0 l/m 2 min 0 min 271 W/m 6,4 km/h (2 Bft) 100,00 %
21.10.2022 14:10 16,9 C 18,9 C 14,4 C 97 % 1008,5 hPa 0,0 l/m 2 min 0 min 248 W/m 3,2 km/h (1 Bft) 96,00 %
21.10.2022 14:12 16,9 C 18,9 C 14,4 C 96 % 1008,5 hPa 0,0 l/m 2 min 0 min 250 W/m 6,4 km/h (2 Bft) 100,00 %
21.10.2022 14:14 17,1 C 18,9 C 14,4 C 96 % 1008,5 hPa 0,0 l/m 2 min 0 min 249 W/m 12,9 km/h (3 Bft) 100,00 %
21.10.2022 14:16 17,1 C 18,9 C 14,4 C 96 % 1008,4 hPa 0,0 l/m 2 min 0 min 251 W/m 3,2 km/h (1 Bft) 97,87 %
21.10.2022 14:18 17,2 C 18,9 C 14,4 C 96 % 1008,4 hPa 0,0 l/m 2 min 0 min 272 W/m 3,2 km/h (1 Bft) 100,00 %
21.10.2022 14:20 17,3 C 18,9 C 14,4 C 95 % 1008,4 hPa 0,0 l/m 2 min 0 min 318 W/m 6,4 km/h (2 Bft) 100,00 %
21.10.2022 14:22 17,4 C 18,9 C 14,4 C 95 % 1008,4 hPa 0,0 l/m 2 min 0 min 308 W/m 6,4 km/h (2 Bft) 100,00 %
21.10.2022 14:24 17,5 C 18,9 C 15,0 C 95 % 1008,5 hPa 0,0 l/m 2 min 0 min 341 W/m 16,1 km/h (3 Bft) 100,00 %
21.10.2022 14:26 17,6 C 18,9 C 15,0 C 94 % 1008,5 hPa 0,0 l/m 2 min 0 min 301 W/m 6,4 km/h (2 Bft) 100,00 %
21.10.2022 14:28 17,7 C 18,9 C 15,0 C 94 % 1008,4 hPa 0,0 l/m 2 min 0 min 236 W/m 6,4 km/h (2 Bft) 100,00 %
21.10.2022 14:30 17,8 C 18,9 C 15,0 C 93 % 1008,3 hPa 0,0 l/m 2 min 0 min 237 W/m 9,7 km/h (2 Bft) 100,00 %
21.10.2022 14:32 17,9 C 19,4 C 15,0 C 93 % 1008,3 hPa 0,0 l/m 2 min 0 min 385 W/m 6,4 km/h (2 Bft) 100,00 %
21.10.2022 14:34 18,1 C 19,4 C 15,0 C 92 % 1008,3 hPa 0,0 l/m 2 min 0 min 576 W/m 16,1 km/h (3 Bft) 100,00 %
21.10.2022 14:36 18,1 C 19,4 C 15,0 C 91 % 1008,2 hPa 0,0 l/m 2 min 0 min 258 W/m 16,1 km/h (3 Bft) 100,00 %
21.10.2022 14:38 18,2 C 18,9 C 15,0 C 90 % 1008,2 hPa 0,0 l/m 0 min 0 min 180 W/m 19,3 km/h (3 Bft) 100,00 %
21.10.2022 14:40 18,3 C 18,9 C 15,0 C 90 % 1008,3 hPa 0,0 l/m 2 min 0 min 325 W/m 9,7 km/h (2 Bft) 97,96 %
21.10.2022 14:42 18,4 C 18,9 C 15,0 C 90 % 1008,3 hPa 0,0 l/m 0 min 0 min 202 W/m 12,9 km/h (3 Bft) 100,00 %
21.10.2022 14:44 18,5 C 19,4 C 15,0 C 89 % 1008,3 hPa 0,0 l/m 2 min 0 min 466 W/m 12,9 km/h (3 Bft) 100,00 %
21.10.2022 14:46 18,6 C 18,9 C 15,0 C 89 % 1008,2 hPa 0,0 l/m 0 min 0 min 201 W/m 6,4 km/h (2 Bft) 97,87 %
21.10.2022 14:48 18,6 C 18,9 C 15,0 C 88 % 1008,3 hPa 0,0 l/m 0 min 0 min 179 W/m 6,4 km/h (2 Bft) 97,87 %
21.10.2022 14:50 18,7 C 18,9 C 15,0 C 88 % 1008,3 hPa 0,0 l/m 0 min 0 min 174 W/m 6,4 km/h (2 Bft) 95,65 %
21.10.2022 14:52 18,7 C 18,9 C 15,0 C 88 % 1008,3 hPa 0,0 l/m 0 min 0 min 163 W/m 16,1 km/h (3 Bft) 100,00 %
21.10.2022 14:54 18,7 C 18,9 C 15,0 C 87 % 1008,3 hPa 0,0 l/m 0 min 0 min 159 W/m 16,1 km/h (3 Bft) 100,00 %
21.10.2022 14:56 18,7 C 18,9 C 15,0 C 87 % 1008,3 hPa 0,0 l/m 0 min 0 min 164 W/m 12,9 km/h (3 Bft) 100,00 %
21.10.2022 14:58 18,7 C 18,9 C 15,0 C 87 % 1008,3 hPa 0,0 l/m 0 min 0 min 184 W/m 16,1 km/h (3 Bft) 97,87 %
21.10.2022 15:00 18,8 C 18,9 C 15,0 C 86 % 1008,3 hPa 0,0 l/m 0 min 0 min 191 W/m 12,9 km/h (3 Bft) 100,00 %
21.10.2022 15:02 18,8 C 18,9 C 15,0 C 86 % 1008,3 hPa 0,0 l/m 0 min 0 min 192 W/m 6,4 km/h (2 Bft) 100,00 %
21.10.2022 15:04 18,8 C 18,9 C 15,0 C 86 % 1008,3 hPa 0,0 l/m 0 min 0 min 185 W/m 6,4 km/h (2 Bft) 97,83 %
21.10.2022 15:06 18,8 C 18,9 C 15,0 C 86 % 1008,3 hPa 0,0 l/m 0 min 0 min 183 W/m 12,9 km/h (3 Bft) 100,00 %
21.10.2022 15:08 18,8 C 18,9 C 15,0 C 86 % 1008,3 hPa 0,0 l/m 0 min 0 min 192 W/m 3,2 km/h (1 Bft) 100,00 %
21.10.2022 15:10 18,8 C 18,9 C 15,0 C 86 % 1008,4 hPa 0,0 l/m 2 min 0 min 227 W/m 12,9 km/h (3 Bft) 95,74 %
21.10.2022 15:12 18,9 C 19,4 C 15,0 C 86 % 1008,4 hPa 0,0 l/m 2 min 0 min 294 W/m 12,9 km/h (3 Bft) 97,87 %
21.10.2022 15:14 18,9 C 19,4 C 15,0 C 87 % 1008,3 hPa 0,0 l/m 2 min 0 min 306 W/m 6,4 km/h (2 Bft) 97,87 %
21.10.2022 15:16 19,0 C 19,4 C 15,0 C 87 % 1008,4 hPa 0,0 l/m 2 min 0 min 247 W/m 12,9 km/h (3 Bft) 95,65 %
21.10.2022 15:18 19,1 C 19,4 C 15,0 C 86 % 1008,3 hPa 0,0 l/m 2 min 0 min 237 W/m 12,9 km/h (3 Bft) 95,74 %
21.10.2022 15:20 19,1 C 19,4 C 15,0 C 86 % 1008,4 hPa 0,0 l/m 0 min 0 min 136 W/m 19,3 km/h (3 Bft) 95,74 %
21.10.2022 15:22 19,1 C 18,9 C 15,0 C 86 % 1008,4 hPa 0,0 l/m 0 min 0 min 127 W/m 19,3 km/h (3 Bft) 95,74 %
21.10.2022 15:24 19,1 C 18,9 C 15,0 C 86 % 1008,4 hPa 0,0 l/m 0 min 0 min 112 W/m 6,4 km/h (2 Bft) 97,87 %
21.10.2022 15:26 19,0 C 18,9 C 15,0 C 86 % 1008,4 hPa 0,0 l/m 0 min 0 min 135 W/m 16,1 km/h (3 Bft) 97,87 %
21.10.2022 15:28 19,0 C 18,9 C 15,0 C 86 % 1008,4 hPa 0,0 l/m 0 min 0 min 137 W/m 19,3 km/h (3 Bft) 93,48 %
21.10.2022 15:30 18,9 C 18,9 C 15,0 C 86 % 1008,4 hPa 0,0 l/m 0 min 0 min 176 W/m 12,9 km/h (3 Bft) 97,87 %
21.10.2022 15:32 18,9 C 18,9 C 15,0 C 86 % 1008,4 hPa 0,0 l/m 2 min 0 min 206 W/m 12,9 km/h (3 Bft) 97,87 %
21.10.2022 15:34 18,9 C 18,9 C 15,0 C 86 % 1008,4 hPa 0,0 l/m 2 min 0 min 444 W/m 9,7 km/h (2 Bft) 95,74 %
21.10.2022 15:36 18,9 C 18,9 C 15,0 C 86 % 1008,4 hPa 0,0 l/m 2 min 0 min 190 W/m 16,1 km/h (3 Bft) 93,10 %
21.10.2022 15:38 18,9 C 18,9 C 15,0 C 86 % 1008,4 hPa 0,0 l/m 0 min 0 min 126 W/m 12,9 km/h (3 Bft) 94,44 %
21.10.2022 15:40 18,9 C 18,3 C 15,0 C 86 % 1008,4 hPa 0,0 l/m 0 min 0 min 73 W/m 6,4 km/h (2 Bft) 90,57 %
21.10.2022 15:42 18,9 C 18,3 C 14,4 C 86 % 1008,4 hPa 0,0 l/m 0 min 0 min 47 W/m 12,9 km/h (3 Bft) 91,49 %
21.10.2022 15:44 18,9 C 17,8 C 14,4 C 86 % 1008,4 hPa 0,0 l/m 0 min 0 min 37 W/m 6,4 km/h (2 Bft) 93,62 %
21.10.2022 15:46 18,8 C 17,8 C 14,4 C 87 % 1008,5 hPa 0,0 l/m 0 min 0 min 37 W/m 9,7 km/h (2 Bft) 89,36 %
21.10.2022 15:48 18,8 C 17,8 C 14,4 C 87 % 1008,4 hPa 0,0 l/m 0 min 0 min 40 W/m 12,9 km/h (3 Bft) 93,48 %
21.10.2022 15:50 18,7 C 17,8 C 14,4 C 87 % 1008,5 hPa 0,0 l/m 0 min 0 min 41 W/m 12,9 km/h (3 Bft) 95,74 %
21.10.2022 15:52 18,7 C 17,8 C 14,4 C 87 % 1008,4 hPa 0,0 l/m 0 min 0 min 37 W/m 12,9 km/h (3 Bft) 95,74 %
21.10.2022 15:54 18,6 C 17,2 C 14,4 C 88 % 1008,5 hPa 0,0 l/m 0 min 0 min 35 W/m 12,9 km/h (3 Bft) 93,62 %
21.10.2022 15:56 18,6 C 17,2 C 13,9 C 88 % 1008,4 hPa 0,0 l/m 0 min 0 min 34 W/m 6,4 km/h (2 Bft) 95,74 %
21.10.2022 15:58 18,5 C 17,2 C 13,9 C 88 % 1008,5 hPa 0,0 l/m 0 min 2 min 47 W/m 6,4 km/h (2 Bft) 93,62 %
21.10.2022 16:00 18,5 C 17,8 C 13,9 C 88 % 1008,5 hPa 0,0 l/m 0 min 0 min 72 W/m 6,4 km/h (2 Bft) 95,65 %
21.10.2022 16:02 18,4 C 17,8 C 13,9 C 89 % 1008,4 hPa 0,0 l/m 0 min 0 min 118 W/m 3,2 km/h (1 Bft) 95,74 %
21.10.2022 16:04 18,4 C 18,3 C 13,9 C 89 % 1008,4 hPa 0,0 l/m 2 min 0 min 202 W/m 6,4 km/h (2 Bft) 93,62 %
21.10.2022 16:06 18,5 C 18,3 C 14,4 C 89 % 1008,4 hPa 0,0 l/m 2 min 0 min 309 W/m 6,4 km/h (2 Bft) 95,74 %
21.10.2022 16:08 18,5 C 18,9 C 14,4 C 89 % 1008,3 hPa 0,0 l/m 2 min 0 min 358 W/m 12,9 km/h (3 Bft) 97,87 %
21.10.2022 16:10 18,6 C 18,9 C 14,4 C 90 % 1008,3 hPa 0,0 l/m 2 min 0 min 341 W/m 6,4 km/h (2 Bft) 93,48 %
21.10.2022 16:12 18,6 C 18,9 C 14,4 C 89 % 1008,3 hPa 0,0 l/m 2 min 0 min 225 W/m 6,4 km/h (2 Bft) 93,62 %
21.10.2022 16:14 18,6 C 18,3 C 14,4 C 89 % 1008,2 hPa 0,0 l/m 0 min 0 min 87 W/m 6,4 km/h (2 Bft) 93,62 %
21.10.2022 16:16 18,6 C 18,3 C 14,4 C 89 % 1008,3 hPa 0,0 l/m 0 min 0 min 74 W/m 12,9 km/h (3 Bft) 91,49 %
21.10.2022 16:18 18,6 C 18,3 C 14,4 C 89 % 1008,3 hPa 0,0 l/m 0 min 0 min 75 W/m 6,4 km/h (2 Bft) 95,74 %
21.10.2022 16:20 18,6 C 18,3 C 14,4 C 89 % 1008,3 hPa 0,0 l/m 2 min 0 min 199 W/m 6,4 km/h (2 Bft) 95,74 %
21.10.2022 16:22 18,6 C 18,9 C 14,4 C 89 % 1008,4 hPa 0,0 l/m 2 min 0 min 240 W/m 6,4 km/h (2 Bft) 95,74 %
21.10.2022 16:24 18,6 C 18,9 C 14,4 C 89 % 1008,3 hPa 0,0 l/m 2 min 0 min 250 W/m 3,2 km/h (1 Bft) 97,83 %
21.10.2022 16:26 18,7 C 18,9 C 14,4 C 89 % 1008,3 hPa 0,0 l/m 2 min 0 min 278 W/m 6,4 km/h (2 Bft) 95,74 %
21.10.2022 16:28 18,7 C 18,9 C 14,4 C 89 % 1008,3 hPa 0,0 l/m 2 min 0 min 278 W/m 6,4 km/h (2 Bft) 100,00 %
21.10.2022 16:30 18,7 C 18,9 C 14,4 C 88 % 1008,3 hPa 0,0 l/m 2 min 0 min 170 W/m 0,0 km/h (0 Bft) 100,00 %
21.10.2022 16:32 18,8 C 18,9 C 14,4 C 88 % 1008,4 hPa 0,0 l/m 0 min 0 min 48 W/m 3,2 km/h (1 Bft) 95,74 %
21.10.2022 16:34 18,8 C 18,3 C 14,4 C 88 % 1008,4 hPa 0,0 l/m 0 min 0 min 48 W/m 6,4 km/h (2 Bft) 97,83 %
21.10.2022 16:36 18,8 C 18,3 C 14,4 C 88 % 1008,4 hPa 0,0 l/m 0 min 0 min 53 W/m 3,2 km/h (1 Bft) 100,00 %
21.10.2022 16:38 18,8 C 18,3 C 14,4 C 88 % 1008,4 hPa 0,0 l/m 0 min 0 min 64 W/m 3,2 km/h (1 Bft) 100,00 %
21.10.2022 16:40 18,8 C 18,3 C 14,4 C 88 % 1008,4 hPa 0,0 l/m 0 min 0 min 76 W/m 12,9 km/h (3 Bft) 100,00 %
21.10.2022 16:42 18,8 C 18,3 C 14,4 C 88 % 1008,3 hPa 0,0 l/m 0 min 0 min 95 W/m 12,9 km/h (3 Bft) 100,00 %
21.10.2022 16:44 18,8 C 18,9 C 14,4 C 88 % 1008,4 hPa 0,0 l/m 2 min 0 min 132 W/m 6,4 km/h (2 Bft) 100,00 %
21.10.2022 16:46 18,8 C 18,9 C 14,4 C 88 % 1008,3 hPa 0,0 l/m 2 min 0 min 121 W/m 3,2 km/h (1 Bft) 100,00 %
21.10.2022 16:48 18,8 C 18,9 C 14,4 C 88 % 1008,4 hPa 0,0 l/m 0 min 0 min 101 W/m 6,4 km/h (2 Bft) 100,00 %
21.10.2022 16:50 18,8 C 18,9 C 14,4 C 88 % 1008,4 hPa 0,0 l/m 0 min 0 min 79 W/m 12,9 km/h (3 Bft) 100,00 %
21.10.2022 16:52 18,8 C 18,9 C 14,4 C 88 % 1008,4 hPa 0,0 l/m 2 min 0 min 112 W/m 6,4 km/h (2 Bft) 100,00 %
21.10.2022 16:54 18,8 C 19,4 C 14,4 C 88 % 1008,4 hPa 0,0 l/m 2 min 0 min 195 W/m 12,9 km/h (3 Bft) 100,00 %
21.10.2022 16:56 18,8 C 18,9 C 14,4 C 88 % 1008,4 hPa 0,0 l/m 2 min 0 min 224 W/m 19,3 km/h (3 Bft) 100,00 %
21.10.2022 16:58 18,8 C 18,9 C 14,4 C 88 % 1008,4 hPa 0,0 l/m 2 min 0 min 173 W/m 6,4 km/h (2 Bft) 100,00 %
21.10.2022 17:00 18,8 C 18,9 C 14,4 C 88 % 1008,4 hPa 0,0 l/m 2 min 0 min 104 W/m 6,4 km/h (2 Bft) 97,87 %
21.10.2022 17:02 18,9 C 18,9 C 14,4 C 89 % 1008,4 hPa 0,0 l/m 0 min 0 min 75 W/m 12,9 km/h (3 Bft) 100,00 %
21.10.2022 17:04 18,9 C 18,3 C 14,4 C 88 % 1008,4 hPa 0,0 l/m 0 min 0 min 57 W/m 6,4 km/h (2 Bft) 100,00 %
21.10.2022 17:06 18,9 C 18,3 C 14,4 C 88 % 1008,5 hPa 0,0 l/m 0 min 0 min 52 W/m 16,1 km/h (3 Bft) 100,00 %
21.10.2022 17:08 18,9 C 18,3 C 14,4 C 88 % 1008,5 hPa 0,0 l/m 0 min 0 min 54 W/m 12,9 km/h (3 Bft) 100,00 %
21.10.2022 17:10 18,8 C 18,3 C 14,4 C 88 % 1008,5 hPa 0,0 l/m 0 min 0 min 59 W/m 12,9 km/h (3 Bft) 100,00 %
21.10.2022 17:12 18,8 C 18,3 C 14,4 C 87 % 1008,5 hPa 0,0 l/m 0 min 0 min 65 W/m 12,9 km/h (3 Bft) 97,87 %
21.10.2022 17:14 18,8 C 18,9 C 14,4 C 86 % 1008,5 hPa 0,0 l/m 0 min 0 min 72 W/m 16,1 km/h (3 Bft) 100,00 %
21.10.2022 17:16 18,8 C 18,9 C 15,0 C 84 % 1008,4 hPa 0,0 l/m 0 min 0 min 72 W/m 12,9 km/h (3 Bft) 100,00 %
21.10.2022 17:18 18,8 C 18,9 C 15,0 C 84 % 1008,4 hPa 0,0 l/m 0 min 0 min 62 W/m 19,3 km/h (3 Bft) 97,87 %
21.10.2022 17:20 18,9 C 18,9 C 15,0 C 83 % 1008,3 hPa 0,0 l/m 0 min 0 min 53 W/m 12,9 km/h (3 Bft) 100,00 %
21.10.2022 17:22 18,9 C 18,9 C 15,0 C 83 % 1008,3 hPa 0,0 l/m 0 min 0 min 48 W/m 16,1 km/h (3 Bft) 97,83 %
21.10.2022 17:24 18,9 C 18,9 C 14,4 C 82 % 1008,3 hPa 0,0 l/m 0 min 0 min 48 W/m 9,7 km/h (2 Bft) 97,87 %
21.10.2022 17:26 19,0 C 18,9 C 14,4 C 82 % 1008,3 hPa 0,0 l/m 0 min 0 min 48 W/m 16,1 km/h (3 Bft) 97,87 %
21.10.2022 17:28 19,0 C 18,3 C 14,4 C 82 % 1008,3 hPa 0,0 l/m 0 min 0 min 47 W/m 12,9 km/h (3 Bft) 97,87 %
21.10.2022 17:30 19,0 C 18,3 C 14,4 C 82 % 1008,3 hPa 0,0 l/m 0 min 0 min 45 W/m 3,2 km/h (1 Bft) 97,87 %
21.10.2022 17:32 19,1 C 18,3 C 14,4 C 82 % 1008,2 hPa 0,0 l/m 0 min 0 min 41 W/m 6,4 km/h (2 Bft) 97,87 %
21.10.2022 17:34 19,0 C 18,3 C 13,9 C 82 % 1008,2 hPa 0,0 l/m 0 min 0 min 37 W/m 3,2 km/h (1 Bft) 97,83 %
21.10.2022 17:36 19,0 C 18,3 C 13,9 C 82 % 1008,2 hPa 0,0 l/m 0 min 0 min 35 W/m 3,2 km/h (1 Bft) 95,74 %
21.10.2022 17:38 19,0 C 18,3 C 13,9 C 82 % 1008,2 hPa 0,0 l/m 0 min 0 min 33 W/m 3,2 km/h (1 Bft) 97,87 %
21.10.2022 17:40 19,0 C 18,3 C 13,9 C 82 % 1008,2 hPa 0,0 l/m 0 min 0 min 31 W/m 3,2 km/h (1 Bft) 97,87 %
21.10.2022 17:42 19,0 C 17,8 C 13,9 C 82 % 1008,2 hPa 0,0 l/m 0 min 0 min 28 W/m 3,2 km/h (1 Bft) 97,87 %
21.10.2022 17:44 19,0 C 17,8 C 13,9 C 82 % 1008,2 hPa 0,0 l/m 0 min 0 min 28 W/m 6,4 km/h (2 Bft) 97,87 %
21.10.2022 17:46 18,9 C 17,8 C 13,9 C 82 % 1008,2 hPa 0,0 l/m 0 min 0 min 27 W/m 3,2 km/h (1 Bft) 97,83 %
21.10.2022 17:48 18,9 C 17,8 C 13,9 C 82 % 1008,3 hPa 0,0 l/m 0 min 0 min 26 W/m 3,2 km/h (1 Bft) 97,87 %
21.10.2022 17:50 18,9 C 17,8 C 13,9 C 82 % 1008,3 hPa 0,0 l/m 0 min 0 min 26 W/m 3,2 km/h (1 Bft) 95,74 %
21.10.2022 17:52 18,9 C 17,8 C 13,9 C 83 % 1008,3 hPa 0,0 l/m 0 min 0 min 26 W/m 6,4 km/h (2 Bft) 97,87 %
21.10.2022 17:54 18,8 C 17,8 C 13,9 C 83 % 1008,4 hPa 0,0 l/m 0 min 0 min 26 W/m 6,4 km/h (2 Bft) 97,87 %
21.10.2022 17:56 18,8 C 17,8 C 13,9 C 84 % 1008,4 hPa 0,0 l/m 0 min 0 min 26 W/m 0,0 km/h (0 Bft) 97,87 %
21.10.2022 17:58 18,8 C 17,2 C 13,3 C 84 % 1008,5 hPa 0,0 l/m 0 min 0 min 26 W/m 3,2 km/h (1 Bft) 100,00 %
21.10.2022 18:00 18,8 C 17,2 C 13,3 C 84 % 1008,5 hPa 0,0 l/m 0 min 0 min 25 W/m 0,0 km/h (0 Bft) 97,87 %
21.10.2022 18:02 18,8 C 17,2 C 13,3 C 85 % 1008,5 hPa 0,0 l/m 0 min 0 min 22 W/m 0,0 km/h (0 Bft) 100,00 %
21.10.2022 18:04 18,7 C 17,2 C 13,3 C 85 % 1008,5 hPa 0,0 l/m 0 min 0 min 20 W/m 0,0 km/h (0 Bft) 97,87 %
21.10.2022 18:08 18,7 C 17,2 C 13,3 C 85 % 1008,5 hPa 0,0 l/m 0 min 0 min 17 W/m 0,0 km/h (0 Bft) 100,00 %
21.10.2022 18:10 18,7 C 16,7 C 13,3 C 86 % 1008,5 hPa 0,0 l/m 0 min 0 min 14 W/m 0,0 km/h (0 Bft) 97,87 %
21.10.2022 18:12 18,6 C 16,7 C 12,8 C 86 % 1008,5 hPa 0,0 l/m 0 min 0 min 12 W/m 0,0 km/h (0 Bft) 100,00 %
21.10.2022 18:14 18,6 C 16,7 C 12,8 C 86 % 1008,5 hPa 0,0 l/m 0 min 0 min 11 W/m 0,0 km/h (0 Bft) 95,74 %
21.10.2022 18:16 18,6 C 16,7 C 12,8 C 86 % 1008,6 hPa 0,0 l/m 0 min 0 min 10 W/m 0,0 km/h (0 Bft) 96,43 %
21.10.2022 18:18 18,6 C 16,7 C 12,8 C 86 % 1008,5 hPa 0,0 l/m 0 min 0 min 9 W/m 0,0 km/h (0 Bft) 97,87 %
21.10.2022 18:20 18,5 C 16,7 C 12,8 C 86 % 1008,5 hPa 0,0 l/m 0 min 0 min 7 W/m 0,0 km/h (0 Bft) 94,74 %
21.10.2022 18:22 18,4 C 16,7 C 12,8 C 87 % 1008,5 hPa 0,0 l/m 0 min 0 min 6 W/m 0,0 km/h (0 Bft) 95,74 %
21.10.2022 18:24 18,4 C 16,7 C 12,8 C 87 % 1008,6 hPa 0,0 l/m 0 min 0 min 5 W/m 0,0 km/h (0 Bft) 95,65 %
21.10.2022 18:26 18,3 C 16,7 C 12,8 C 87 % 1008,6 hPa 0,0 l/m 0 min 0 min 1 W/m 3,2 km/h (1 Bft) 96,43 %
21.10.2022 18:28 18,3 C 16,7 C 12,8 C 87 % 1008,6 hPa 0,0 l/m 0 min 0 min 0 W/m 3,2 km/h (1 Bft) 91,49 %
21.10.2022 18:30 18,2 C 16,7 C 12,8 C 87 % 1008,6 hPa 0,0 l/m 0 min 0 min 0 W/m 0,0 km/h (0 Bft) 97,87 %
21.10.2022 18:32 18,2 C 16,1 C 12,8 C 87 % 1008,5 hPa 0,0 l/m 0 min 0 min 0 W/m 3,2 km/h (1 Bft) 93,62 %
21.10.2022 18:34 18,1 C 16,1 C 12,8 C 87 % 1008,6 hPa 0,0 l/m 0 min 0 min 0 W/m 0,0 km/h (0 Bft) 94,74 %
21.10.2022 18:36 18,1 C 16,1 C 12,8 C 87 % 1008,6 hPa 0,0 l/m 0 min 0 min 0 W/m 0,0 km/h (0 Bft) 96,55 %
21.10.2022 18:38 18,1 C 16,1 C 12,8 C 87 % 1008,6 hPa 0,0 l/m 0 min 0 min 0 W/m 0,0 km/h (0 Bft) 94,29 %
21.10.2022 18:40 18,0 C 16,1 C 12,8 C 87 % 1008,5 hPa 0,0 l/m 0 min 0 min 0 W/m 0,0 km/h (0 Bft) 96,36 %
21.10.2022 18:42 17,9 C 16,1 C 12,8 C 88 % 1008,5 hPa 0,0 l/m 0 min 0 min 0 W/m 0,0 km/h (0 Bft) 96,00 %
21.10.2022 18:44 17,9 C 16,1 C 12,2 C 88 % 1008,5 hPa 0,0 l/m 0 min 0 min 0 W/m 0,0 km/h (0 Bft) 95,65 %
21.10.2022 18:46 17,8 C 16,1 C 12,2 C 88 % 1008,6 hPa 0,0 l/m 0 min 0 min 0 W/m 0,0 km/h (0 Bft) 91,49 %
21.10.2022 18:48 17,8 C 15,6 C 12,2 C 88 % 1008,6 hPa 0,0 l/m 0 min 0 min 0 W/m 0,0 km/h (0 Bft) 97,22 %
21.10.2022 18:50 17,7 C 15,6 C 12,2 C 88 % 1008,6 hPa 0,0 l/m 0 min 0 min 0 W/m 0,0 km/h (0 Bft) 93,62 %
21.10.2022 18:52 17,6 C 15,6 C 12,2 C 88 % 1008,6 hPa 0,0 l/m 0 min 0 min 0 W/m 3,2 km/h (1 Bft) 93,62 %
21.10.2022 18:54 17,6 C 15,6 C 12,2 C 88 % 1008,7 hPa 0,0 l/m 0 min 0 min 0 W/m 0,0 km/h (0 Bft) 95,74 %
21.10.2022 18:56 17,5 C 15,6 C 11,7 C 88 % 1008,7 hPa 0,0 l/m 0 min 0 min 0 W/m 0,0 km/h (0 Bft) 95,74 %
21.10.2022 18:58 17,4 C 15,6 C 11,7 C 88 % 1008,6 hPa 0,0 l/m 0 min 0 min 0 W/m 0,0 km/h (0 Bft) 96,30 %
21.10.2022 19:00 17,4 C 15,6 C 11,7 C 88 % 1008,6 hPa 0,0 l/m 0 min 0 min 0 W/m 0,0 km/h (0 Bft) 98,00 %
21.10.2022 19:02 17,3 C 15,6 C 11,7 C 88 % 1008,7 hPa 0,0 l/m 0 min 0 min 0 W/m 0,0 km/h (0 Bft) 97,87 %
21.10.2022 19:04 17,3 C 15,6 C 11,7 C 88 % 1008,7 hPa 0,0 l/m 0 min 0 min 0 W/m 0,0 km/h (0 Bft) 100,00 %
21.10.2022 19:06 17,2 C 15,6 C 11,7 C 88 % 1008,8 hPa 0,0 l/m 0 min 0 min 0 W/m 3,2 km/h (1 Bft) 95,74 %
21.10.2022 19:08 17,1 C 15,6 C 11,7 C 88 % 1008,8 hPa 0,0 l/m 0 min 0 min 0 W/m 3,2 km/h (1 Bft) 97,83 %
21.10.2022 19:10 17,1 C 15,6 C 11,7 C 88 % 1008,8 hPa 0,0 l/m 0 min 0 min 0 W/m 0,0 km/h (0 Bft) 100,00 %
21.10.2022 19:12 17,1 C 15,6 C 11,1 C 88 % 1008,9 hPa 0,0 l/m 0 min 0 min 0 W/m 0,0 km/h (0 Bft) 97,22 %
21.10.2022 19:14 17,0 C 15,6 C 11,1 C 88 % 1008,9 hPa 0,0 l/m 0 min 0 min 0 W/m 0,0 km/h (0 Bft) 100,00 %
21.10.2022 19:16 16,9 C 15,6 C 11,1 C 88 % 1008,8 hPa 0,0 l/m 0 min 0 min 0 W/m 3,2 km/h (1 Bft) 95,74 %
21.10.2022 19:18 16,9 C 15,6 C 11,1 C 88 % 1008,9 hPa 0,0 l/m 0 min 0 min 0 W/m 3,2 km/h (1 Bft) 100,00 %
21.10.2022 19:20 16,8 C 15,6 C 11,7 C 88 % 1008,9 hPa 0,0 l/m 0 min 0 min 0 W/m 3,2 km/h (1 Bft) 97,83 %
21.10.2022 19:22 16,8 C 15,6 C 11,7 C 88 % 1008,9 hPa 0,0 l/m 0 min 0 min 0 W/m 3,2 km/h (1 Bft) 96,00 %
21.10.2022 19:24 16,8 C 15,6 C 11,7 C 89 % 1008,9 hPa 0,0 l/m 0 min 0 min 0 W/m 3,2 km/h (1 Bft) 97,87 %
21.10.2022 19:26 16,7 C 15,6 C 12,2 C 89 % 1008,9 hPa 0,0 l/m 0 min 0 min 0 W/m 3,2 km/h (1 Bft) 97,22 %
21.10.2022 19:28 16,7 C 15,6 C 12,2 C 89 % 1008,9 hPa 0,0 l/m 0 min 0 min 0 W/m 3,2 km/h (1 Bft) 97,87 %
21.10.2022 19:30 16,7 C 15,6 C 12,2 C 89 % 1008,9 hPa 0,0 l/m 0 min 0 min 0 W/m 3,2 km/h (1 Bft) 98,18 %
21.10.2022 19:32 16,7 C 15,6 C 12,2 C 89 % 1008,9 hPa 0,0 l/m 0 min 0 min 0 W/m 3,2 km/h (1 Bft) 97,83 %
21.10.2022 19:34 16,6 C 15,6 C 12,2 C 89 % 1008,9 hPa 0,0 l/m 0 min 0 min 0 W/m 3,2 km/h (1 Bft) 98,00 %
21.10.2022 19:36 16,6 C 15,6 C 12,2 C 89 % 1009,0 hPa 0,0 l/m 0 min 0 min 0 W/m 3,2 km/h (1 Bft) 97,92 %
21.10.2022 19:38 16,6 C 15,6 C 12,2 C 89 % 1009,0 hPa 0,0 l/m 0 min 0 min 0 W/m 3,2 km/h (1 Bft) 97,14 %
21.10.2022 19:40 16,6 C 15,6 C 12,2 C 89 % 1009,0 hPa 0,0 l/m 0 min 0 min 0 W/m 3,2 km/h (1 Bft) 97,87 %
21.10.2022 19:42 16,6 C 15,6 C 12,2 C 89 % 1009,1 hPa 0,0 l/m 0 min 0 min 0 W/m 3,2 km/h (1 Bft) 97,87 %
21.10.2022 19:44 16,6 C 15,6 C 12,2 C 89 % 1009,1 hPa 0,0 l/m 0 min 0 min 0 W/m 3,2 km/h (1 Bft) 97,87 %
21.10.2022 19:46 16,5 C 15,6 C 12,2 C 89 % 1009,1 hPa 0,0 l/m 0 min 0 min 0 W/m 3,2 km/h (1 Bft) 97,83 %
21.10.2022 19:48 16,5 C 15,0 C 11,7 C 89 % 1009,1 hPa 0,0 l/m 0 min 0 min 0 W/m 0,0 km/h (0 Bft) 98,18 %
21.10.2022 19:50 16,4 C 15,0 C 11,7 C 89 % 1009,1 hPa 0,0 l/m 0 min 0 min 0 W/m 0,0 km/h (0 Bft) 97,87 %
21.10.2022 19:52 16,4 C 15,0 C 11,7 C 89 % 1009,2 hPa 0,0 l/m 0 min 0 min 0 W/m 0,0 km/h (0 Bft) 96,00 %
21.10.2022 19:54 16,4 C 15,0 C 11,7 C 89 % 1009,2 hPa 0,0 l/m 0 min 0 min 0 W/m 3,2 km/h (1 Bft) 100,00 %
21.10.2022 19:56 16,4 C 15,0 C 11,7 C 89 % 1009,2 hPa 0,0 l/m 0 min 0 min 0 W/m 3,2 km/h (1 Bft) 93,62 %
21.10.2022 19:58 16,3 C 15,0 C 11,7 C 89 % 1009,2 hPa 0,0 l/m 0 min 0 min 0 W/m 3,2 km/h (1 Bft) 100,00 %
21.10.2022 20:00 16,3 C 15,0 C 11,7 C 89 % 1009,3 hPa 0,0 l/m 0 min 0 min 0 W/m 3,2 km/h (1 Bft) 97,87 %
21.10.2022 20:02 16,3 C 15,0 C 11,7 C 90 % 1009,3 hPa 0,0 l/m 0 min 0 min 0 W/m 0,0 km/h (0 Bft) 100,00 %
21.10.2022 20:04 16,3 C 15,0 C 11,7 C 90 % 1009,3 hPa 0,0 l/m 0 min 0 min 0 W/m 0,0 km/h (0 Bft) 100,00 %
21.10.2022 20:06 16,2 C 15,0 C 11,7 C 90 % 1009,3 hPa 0,0 l/m 0 min 0 min 0 W/m 3,2 km/h (1 Bft) 97,87 %
21.10.2022 20:08 16,2 C 15,0 C 11,7 C 90 % 1009,3 hPa 0,0 l/m 0 min 0 min 0 W/m 0,0 km/h (0 Bft) 100,00 %
21.10.2022 20:10 16,2 C 14,4 C 11,7 C 90 % 1009,3 hPa 0,0 l/m 0 min 0 min 0 W/m 3,2 km/h (1 Bft) 100,00 %
21.10.2022 20:12 16,2 C 14,4 C 11,7 C 90 % 1009,3 hPa 0,0 l/m 0 min 0 min 0 W/m 3,2 km/h (1 Bft) 100,00 %
21.10.2022 20:14 16,1 C 14,4 C 11,7 C 90 % 1009,3 hPa 0,0 l/m 0 min 0 min 0 W/m 3,2 km/h (1 Bft) 100,00 %
21.10.2022 20:16 16,1 C 14,4 C 11,7 C 90 % 1009,3 hPa 0,0 l/m 0 min 0 min 0 W/m 3,2 km/h (1 Bft) 100,00 %
21.10.2022 20:18 16,1 C 14,4 C 11,1 C 90 % 1009,4 hPa 0,0 l/m 0 min 0 min 0 W/m 0,0 km/h (0 Bft) 100,00 %
21.10.2022 20:20 16,0 C 14,4 C 11,1 C 90 % 1009,4 hPa 0,0 l/m 0 min 0 min 0 W/m 3,2 km/h (1 Bft) 97,83 %
21.10.2022 20:22 16,0 C 14,4 C 11,1 C 90 % 1009,4 hPa 0,0 l/m 0 min 0 min 0 W/m 3,2 km/h (1 Bft) 100,00 %
21.10.2022 20:24 15,9 C 14,4 C 11,1 C 90 % 1009,3 hPa 0,0 l/m 0 min 0 min 0 W/m 6,4 km/h (2 Bft) 100,00 %
21.10.2022 20:26 15,9 C 14,4 C 11,1 C 90 % 1009,3 hPa 0,0 l/m 0 min 0 min 0 W/m 0,0 km/h (0 Bft) 98,00 %
21.10.2022 20:28 15,8 C 14,4 C 11,1 C 90 % 1009,3 hPa 0,0 l/m 0 min 0 min 0 W/m 0,0 km/h (0 Bft) 100,00 %
21.10.2022 20:30 15,8 C 14,4 C 11,1 C 90 % 1009,3 hPa 0,0 l/m 0 min 0 min 0 W/m 3,2 km/h (1 Bft) 97,87 %
21.10.2022 20:32 15,8 C 14,4 C 11,1 C 91 % 1009,3 hPa 0,0 l/m 0 min 0 min 0 W/m 3,2 km/h (1 Bft) 95,65 %
21.10.2022 20:34 15,7 C 13,9 C 11,1 C 91 % 1009,3 hPa 0,0 l/m 0 min 0 min 0 W/m 3,2 km/h (1 Bft) 100,00 %
21.10.2022 20:36 15,7 C 13,9 C 11,1 C 91 % 1009,4 hPa 0,0 l/m 0 min 0 min 0 W/m 3,2 km/h (1 Bft) 96,61 %
21.10.2022 20:38 15,6 C 13,9 C 11,1 C 91 % 1009,4 hPa 0,0 l/m 0 min 0 min 0 W/m 3,2 km/h (1 Bft) 100,00 %
21.10.2022 20:40 15,6 C 13,9 C 11,1 C 91 % 1009,4 hPa 0,0 l/m 0 min 0 min 0 W/m 0,0 km/h (0 Bft) 100,00 %
21.10.2022 20:42 15,6 C 13,9 C 11,1 C 91 % 1009,5 hPa 0,0 l/m 0 min 0 min 0 W/m 0,0 km/h (0 Bft) 97,87 %
21.10.2022 20:44 15,5 C 13,9 C 11,1 C 91 % 1009,5 hPa 0,0 l/m 0 min 0 min 0 W/m 0,0 km/h (0 Bft) 100,00 %
21.10.2022 20:46 15,4 C 13,9 C 11,1 C 91 % 1009,5 hPa 0,0 l/m 0 min 0 min 0 W/m 0,0 km/h (0 Bft) 97,87 %
21.10.2022 20:48 15,4 C 13,9 C 11,1 C 91 % 1009,5 hPa 0,0 l/m 0 min 0 min 0 W/m 0,0 km/h (0 Bft) 95,74 %
21.10.2022 20:50 15,4 C 13,9 C 11,1 C 91 % 1009,5 hPa 0,0 l/m 0 min 0 min 0 W/m 0,0 km/h (0 Bft) 97,87 %
21.10.2022 20:52 15,3 C 13,9 C 11,1 C 92 % 1009,5 hPa 0,0 l/m 0 min 0 min 0 W/m 3,2 km/h (1 Bft) 93,62 %
21.10.2022 20:54 15,3 C 13,9 C 11,1 C 92 % 1009,6 hPa 0,0 l/m 0 min 0 min 0 W/m 3,2 km/h (1 Bft) 100,00 %
21.10.2022 20:56 15,3 C 13,9 C 11,1 C 91 % 1009,5 hPa 0,0 l/m 0 min 0 min 0 W/m 3,2 km/h (1 Bft) 97,83 %
21.10.2022 20:58 15,2 C 13,9 C 11,1 C 92 % 1009,5 hPa 0,0 l/m 0 min 0 min 0 W/m 0,0 km/h (0 Bft) 95,74 %
21.10.2022 21:00 15,2 C 13,9 C 11,1 C 92 % 1009,5 hPa 0,0 l/m 0 min 0 min 0 W/m 0,0 km/h (0 Bft) 97,87 %
21.10.2022 21:02 15,2 C 13,9 C 11,1 C 92 % 1009,5 hPa 0,0 l/m 0 min 0 min 0 W/m 6,4 km/h (2 Bft) 91,49 %
21.10.2022 21:04 15,2 C 13,9 C 11,1 C 92 % 1009,5 hPa 0,0 l/m 0 min 0 min 0 W/m 3,2 km/h (1 Bft) 97,87 %
21.10.2022 21:06 15,1 C 13,9 C 11,1 C 92 % 1009,5 hPa 0,0 l/m 0 min 0 min 0 W/m 3,2 km/h (1 Bft) 96,30 %
21.10.2022 21:08 15,1 C 13,9 C 11,1 C 92 % 1009,5 hPa 0,0 l/m 0 min 0 min 0 W/m 3,2 km/h (1 Bft) 93,62 %
21.10.2022 21:10 15,1 C 13,9 C 11,1 C 92 % 1009,5 hPa 0,0 l/m 0 min 0 min 0 W/m 3,2 km/h (1 Bft) 95,74 %
21.10.2022 21:12 15,0 C 13,9 C 11,1 C 92 % 1009,5 hPa 0,0 l/m 0 min 0 min 0 W/m 3,2 km/h (1 Bft) 93,62 %
21.10.2022 21:14 15,0 C 13,9 C 11,1 C 92 % 1009,5 hPa 0,0 l/m 0 min 0 min 0 W/m 3,2 km/h (1 Bft) 92,00 %
21.10.2022 21:16 14,9 C 13,9 C 11,1 C 92 % 1009,5 hPa 0,0 l/m 0 min 0 min 0 W/m 3,2 km/h (1 Bft) 94,44 %
21.10.2022 21:18 14,9 C 13,9 C 11,1 C 92 % 1009,5 hPa 0,0 l/m 0 min 0 min 0 W/m 3,2 km/h (1 Bft) 91,49 %
21.10.2022 21:20 14,9 C 13,9 C 10,6 C 92 % 1009,5 hPa 0,0 l/m 0 min 0 min 0 W/m 3,2 km/h (1 Bft) 91,30 %
21.10.2022 21:22 14,9 C 13,9 C 10,6 C 92 % 1009,5 hPa 0,0 l/m 0 min 0 min 0 W/m 3,2 km/h (1 Bft) 92,73 %
21.10.2022 21:24 14,9 C 13,9 C 10,6 C 92 % 1009,4 hPa 0,0 l/m 0 min 0 min 0 W/m 0,0 km/h (0 Bft) 94,00 %
21.10.2022 21:26 14,8 C 13,9 C 10,6 C 92 % 1009,4 hPa 0,0 l/m 0 min 0 min 0 W/m 6,4 km/h (2 Bft) 93,62 %
21.10.2022 21:28 14,8 C 13,3 C 10,6 C 93 % 1009,3 hPa 0,0 l/m 0 min 0 min 0 W/m 3,2 km/h (1 Bft) 94,44 %
21.10.2022 21:30 14,8 C 13,3 C 10,6 C 93 % 1009,3 hPa 0,0 l/m 0 min 0 min 0 W/m 3,2 km/h (1 Bft) 95,74 %
21.10.2022 21:32 14,8 C 13,3 C 10,6 C 93 % 1009,3 hPa 0,0 l/m 0 min 0 min 0 W/m 3,2 km/h (1 Bft) 96,30 %
21.10.2022 21:34 14,7 C 13,3 C 10,6 C 93 % 1009,2 hPa 0,0 l/m 0 min 0 min 0 W/m 0,0 km/h (0 Bft) 93,62 %
21.10.2022 21:36 14,7 C 13,3 C 10,6 C 93 % 1009,2 hPa 0,0 l/m 0 min 0 min 0 W/m 3,2 km/h (1 Bft) 96,00 %
21.10.2022 21:38 14,7 C 13,3 C 10,6 C 93 % 1009,2 hPa 0,0 l/m 0 min 0 min 0 W/m 3,2 km/h (1 Bft) 93,62 %
21.10.2022 21:40 14,7 C 13,3 C 10,6 C 93 % 1009,2 hPa 0,0 l/m 0 min 0 min 0 W/m 0,0 km/h (0 Bft) 95,65 %
21.10.2022 21:42 14,6 C 13,3 C 10,0 C 93 % 1009,2 hPa 0,0 l/m 0 min 0 min 0 W/m 0,0 km/h (0 Bft) 100,00 %
21.10.2022 21:44 14,6 C 12,8 C 10,0 C 93 % 1009,3 hPa 0,0 l/m 0 min 0 min 0 W/m 0,0 km/h (0 Bft) 95,65 %
21.10.2022 21:46 14,6 C 12,8 C 10,0 C 93 % 1009,4 hPa 0,0 l/m 0 min 0 min 0 W/m 3,2 km/h (1 Bft) 97,87 %
21.10.2022 21:48 14,5 C 12,8 C 10,0 C 93 % 1009,4 hPa 0,0 l/m 0 min 0 min 0 W/m 3,2 km/h (1 Bft) 95,74 %
21.10.2022 21:50 14,5 C 12,8 C 10,6 C 93 % 1009,4 hPa 0,0 l/m 0 min 0 min 0 W/m 3,2 km/h (1 Bft) 97,87 %
21.10.2022 21:52 14,4 C 12,8 C 10,6 C 93 % 1009,4 hPa 0,0 l/m 0 min 0 min 0 W/m 3,2 km/h (1 Bft) 95,74 %
21.10.2022 21:54 14,4 C 12,8 C 10,6 C 93 % 1009,5 hPa 0,0 l/m 0 min 0 min 0 W/m 3,2 km/h (1 Bft) 97,83 %
21.10.2022 21:56 14,3 C 13,3 C 10,6 C 93 % 1009,5 hPa 0,0 l/m 0 min 0 min 0 W/m 3,2 km/h (1 Bft) 97,87 %
21.10.2022 21:58 14,3 C 13,3 C 10,6 C 93 % 1009,5 hPa 0,0 l/m 0 min 0 min 0 W/m 3,2 km/h (1 Bft) 96,36 %
21.10.2022 22:00 14,3 C 13,3 C 10,6 C 93 % 1009,6 hPa 0,0 l/m 0 min 0 min 0 W/m 3,2 km/h (1 Bft) 100,00 %
21.10.2022 22:02 14,3 C 13,3 C 10,6 C 93 % 1009,6 hPa 0,0 l/m 0 min 0 min 0 W/m 6,4 km/h (2 Bft) 100,00 %
21.10.2022 22:04 14,3 C 13,3 C 10,6 C 94 % 1009,6 hPa 0,0 l/m 0 min 0 min 0 W/m 6,4 km/h (2 Bft) 100,00 %
21.10.2022 22:06 14,3 C 13,3 C 10,6 C 94 % 1009,7 hPa 0,0 l/m 0 min 0 min 0 W/m 3,2 km/h (1 Bft) 97,83 %
21.10.2022 22:08 14,3 C 13,3 C 10,6 C 94 % 1009,7 hPa 0,0 l/m 0 min 0 min 0 W/m 0,0 km/h (0 Bft) 100,00 %
21.10.2022 22:10 14,3 C 13,3 C 10,6 C 94 % 1009,7 hPa 0,0 l/m 0 min 0 min 0 W/m 0,0 km/h (0 Bft) 100,00 %
21.10.2022 22:12 14,3 C 13,3 C 10,6 C 94 % 1009,8 hPa 0,0 l/m 0 min 0 min 0 W/m 3,2 km/h (1 Bft) 100,00 %
21.10.2022 22:14 14,3 C 13,3 C 10,6 C 94 % 1009,8 hPa 0,0 l/m 0 min 0 min 0 W/m 3,2 km/h (1 Bft) 100,00 %
21.10.2022 22:16 14,3 C 12,8 C 10,6 C 94 % 1009,8 hPa 0,0 l/m 0 min 0 min 0 W/m 3,2 km/h (1 Bft) 98,15 %
21.10.2022 22:18 14,3 C 12,8 C 10,6 C 94 % 1009,9 hPa 0,0 l/m 0 min 0 min 0 W/m 3,2 km/h (1 Bft) 100,00 %
21.10.2022 22:20 14,3 C 12,8 C 10,6 C 94 % 1009,9 hPa 0,0 l/m 0 min 0 min 0 W/m 3,2 km/h (1 Bft) 100,00 %
21.10.2022 22:22 14,3 C 12,8 C 10,6 C 95 % 1009,9 hPa 0,0 l/m 0 min 0 min 0 W/m 6,4 km/h (2 Bft) 100,00 %
21.10.2022 22:24 14,3 C 12,8 C 10,6 C 95 % 1009,9 hPa 0,0 l/m 0 min 0 min 0 W/m 6,4 km/h (2 Bft) 97,87 %
21.10.2022 22:26 14,2 C 12,8 C 10,6 C 95 % 1009,8 hPa 0,0 l/m 0 min 0 min 0 W/m 3,2 km/h (1 Bft) 100,00 %
21.10.2022 22:28 14,2 C 12,8 C 10,6 C 95 % 1009,9 hPa 0,0 l/m 0 min 0 min 0 W/m 6,4 km/h (2 Bft) 100,00 %
21.10.2022 22:30 14,2 C 12,8 C 10,6 C 95 % 1009,9 hPa 0,0 l/m 0 min 0 min 0 W/m 6,4 km/h (2 Bft) 100,00 %
21.10.2022 22:32 14,1 C 12,8 C 10,6 C 95 % 1009,9 hPa 0,0 l/m 0 min 0 min 0 W/m 12,9 km/h (3 Bft) 100,00 %
21.10.2022 22:34 14,1 C 12,8 C 10,6 C 95 % 1009,9 hPa 0,0 l/m 0 min 0 min 0 W/m 3,2 km/h (1 Bft) 100,00 %
21.10.2022 22:36 14,1 C 12,8 C 10,6 C 95 % 1009,9 hPa 0,0 l/m 0 min 0 min 0 W/m 6,4 km/h (2 Bft) 100,00 %
21.10.2022 22:38 14,1 C 12,8 C 10,0 C 95 % 1009,9 hPa 0,0 l/m 0 min 0 min 0 W/m 3,2 km/h (1 Bft) 100,00 %
21.10.2022 22:40 14,1 C 12,8 C 10,0 C 95 % 1010,0 hPa 0,0 l/m 0 min 0 min 0 W/m 3,2 km/h (1 Bft) 100,00 %
21.10.2022 22:42 14,1 C 12,8 C 10,0 C 95 % 1009,9 hPa 0,0 l/m 0 min 0 min 0 W/m 0,0 km/h (0 Bft) 100,00 %
21.10.2022 22:44 14,0 C 12,8 C 10,0 C 95 % 1010,0 hPa 0,0 l/m 0 min 0 min 0 W/m 3,2 km/h (1 Bft) 100,00 %
21.10.2022 22:46 14,0 C 12,8 C 10,0 C 95 % 1010,0 hPa 0,0 l/m 0 min 0 min 0 W/m 3,2 km/h (1 Bft) 97,87 %
21.10.2022 22:48 13,9 C 12,8 C 10,0 C 95 % 1010,0 hPa 0,0 l/m 0 min 0 min 0 W/m 3,2 km/h (1 Bft) 100,00 %
21.10.2022 22:50 13,9 C 12,8 C 10,0 C 95 % 1010,0 hPa 0,0 l/m 0 min 0 min 0 W/m 3,2 km/h (1 Bft) 100,00 %
21.10.2022 22:52 13,9 C 12,8 C 10,0 C 95 % 1010,0 hPa 0,0 l/m 0 min 0 min 0 W/m 6,4 km/h (2 Bft) 97,87 %
21.10.2022 22:54 13,9 C 12,8 C 10,0 C 95 % 1010,1 hPa 0,0 l/m 0 min 0 min 0 W/m 12,9 km/h (3 Bft) 100,00 %
21.10.2022 22:56 13,9 C 12,8 C 10,0 C 95 % 1010,1 hPa 0,0 l/m 0 min 0 min 0 W/m 3,2 km/h (1 Bft) 97,87 %
21.10.2022 22:58 13,8 C 12,8 C 10,0 C 95 % 1010,1 hPa 0,0 l/m 0 min 0 min 0 W/m 6,4 km/h (2 Bft) 100,00 %
21.10.2022 23:00 13,8 C 12,8 C 10,0 C 95 % 1010,2 hPa 0,0 l/m 0 min 0 min 0 W/m 3,2 km/h (1 Bft) 95,74 %
21.10.2022 23:02 13,8 C 12,8 C 10,0 C 95 % 1010,2 hPa 0,0 l/m 0 min 0 min 0 W/m 6,4 km/h (2 Bft) 95,74 %
21.10.2022 23:04 13,8 C 12,8 C 10,0 C 96 % 1010,2 hPa 0,0 l/m 0 min 0 min 0 W/m 3,2 km/h (1 Bft) 97,83 %
21.10.2022 23:06 13,8 C 12,8 C 10,0 C 96 % 1010,2 hPa 0,0 l/m 0 min 0 min 0 W/m 0,0 km/h (0 Bft) 95,74 %
21.10.2022 23:08 13,8 C 12,8 C 10,0 C 96 % 1010,1 hPa 0,0 l/m 0 min 0 min 0 W/m 0,0 km/h (0 Bft) 95,74 %
21.10.2022 23:10 13,8 C 12,8 C 10,0 C 96 % 1010,1 hPa 0,0 l/m 0 min 0 min 0 W/m 0,0 km/h (0 Bft) 97,87 %
21.10.2022 23:12 13,7 C 12,8 C 10,0 C 96 % 1010,1 hPa 0,0 l/m 0 min 0 min 0 W/m 3,2 km/h (1 Bft) 97,87 %
21.10.2022 23:14 13,7 C 12,8 C 10,0 C 96 % 1010,1 hPa 0,0 l/m 0 min 0 min 0 W/m 0,0 km/h (0 Bft) 95,74 %
21.10.2022 23:16 13,7 C 12,8 C 10,0 C 96 % 1010,1 hPa 0,0 l/m 0 min 0 min 0 W/m 3,2 km/h (1 Bft) 93,48 %
21.10.2022 23:18 13,7 C 12,8 C 10,0 C 96 % 1010,1 hPa 0,0 l/m 0 min 0 min 0 W/m 6,4 km/h (2 Bft) 93,62 %
21.10.2022 23:20 13,6 C 12,8 C 10,0 C 96 % 1010,0 hPa 0,0 l/m 0 min 0 min 0 W/m 3,2 km/h (1 Bft) 95,74 %
21.10.2022 23:22 13,6 C 12,8 C 10,0 C 96 % 1010,0 hPa 0,0 l/m 0 min 0 min 0 W/m 3,2 km/h (1 Bft) 96,36 %
21.10.2022 23:24 13,6 C 12,8 C 10,0 C 96 % 1010,0 hPa 0,0 l/m 0 min 0 min 0 W/m 3,2 km/h (1 Bft) 95,74 %
21.10.2022 23:26 13,6 C 12,8 C 10,0 C 96 % 1010,0 hPa 0,0 l/m 0 min 0 min 0 W/m 3,2 km/h (1 Bft) 92,11 %
21.10.2022 23:28 13,6 C 12,8 C 10,0 C 96 % 1010,1 hPa 0,0 l/m 0 min 0 min 0 W/m 3,2 km/h (1 Bft) 95,65 %
21.10.2022 23:30 13,6 C 12,8 C 10,0 C 96 % 1010,1 hPa 0,0 l/m 0 min 0 min 0 W/m 0,0 km/h (0 Bft) 95,83 %
21.10.2022 23:32 13,6 C 12,8 C 10,0 C 96 % 1010,1 hPa 0,0 l/m 0 min 0 min 0 W/m 3,2 km/h (1 Bft) 95,74 %
21.10.2022 23:34 13,6 C 12,8 C 10,0 C 96 % 1010,1 hPa 0,0 l/m 0 min 0 min 0 W/m 3,2 km/h (1 Bft) 97,87 %
21.10.2022 23:36 13,6 C 12,8 C 10,0 C 96 % 1010,1 hPa 0,0 l/m 0 min 0 min 0 W/m 3,2 km/h (1 Bft) 97,87 %
21.10.2022 23:38 13,6 C 12,8 C 10,0 C 96 % 1010,1 hPa 0,0 l/m 0 min 0 min 0 W/m 3,2 km/h (1 Bft) 97,83 %
21.10.2022 23:40 13,5 C 12,8 C 10,0 C 96 % 1010,1 hPa 0,0 l/m 0 min 0 min 0 W/m 3,2 km/h (1 Bft) 98,18 %
21.10.2022 23:42 13,5 C 12,2 C 10,0 C 96 % 1010,1 hPa 0,0 l/m 0 min 0 min 0 W/m 3,2 km/h (1 Bft) 97,87 %
21.10.2022 23:44 13,5 C 12,8 C 10,0 C 96 % 1010,0 hPa 0,0 l/m 0 min 0 min 0 W/m 3,2 km/h (1 Bft) 97,87 %
21.10.2022 23:46 13,5 C 12,8 C 10,0 C 96 % 1010,1 hPa 0,0 l/m 0 min 0 min 0 W/m 3,2 km/h (1 Bft) 97,87 %
21.10.2022 23:48 13,5 C 12,8 C 10,0 C 96 % 1010,1 hPa 0,0 l/m 0 min 0 min 0 W/m 0,0 km/h (0 Bft) 97,83 %
21.10.2022 23:50 13,5 C 12,2 C 10,0 C 96 % 1010,1 hPa 0,0 l/m 0 min 0 min 0 W/m 0,0 km/h (0 Bft) 97,87 %
21.10.2022 23:52 13,4 C 12,2 C 10,0 C 96 % 1010,1 hPa 0,0 l/m 0 min 0 min 0 W/m 3,2 km/h (1 Bft) 97,87 %
21.10.2022 23:54 13,4 C 12,2 C 10,0 C 96 % 1010,0 hPa 0,0 l/m 0 min 0 min 0 W/m 3,2 km/h (1 Bft) 97,87 %
21.10.2022 23:56 13,4 C 12,2 C 10,0 C 96 % 1010,1 hPa 0,0 l/m 0 min 0 min 0 W/m 0,0 km/h (0 Bft) 97,37 %
21.10.2022 23:58 13,4 C 12,2 C 10,0 C 96 % 1010,1 hPa 0,0 l/m 0 min 0 min 0 W/m 0,0 km/h (0 Bft) 100,00 %
_ Min-Zeit 05:44 03:32 03:56 17:24 08:00 - - - - 03:38 07:24
Minimum _ 13,1 C 12,2 C 9,4 C 82 % 1007,0 hPa - - - - 0,0 km/h (0 Bft) 48,78 %
_ Max-Zeit 15:18 14:32 14:24 06:24 00:36 00:48 13:48 00:22 14:34 00:48 00:18
Maximum _ 19,1 C 19,4 C 15,0 C 99 % 1010,4 hPa 0,2 l/m 2 min 2 min 576 W/m 25,7 km/h
S-SO (4 Bft)
100,00 %
Durchschnitt _ 15,2 C 14,5 C 11,5 C 95 % 1008,6 hPa #0,4 l/m #1:46 h #46 min. 99 W/m 6,9 km/h (2 Bft) 97,37 %
© 2022 W. Hausmann